Time,TemperatureF,DewpointF,PressureIn,WindDirection,WindDirectionDegrees,WindSpeedMPH,WindSpeedGustMPH,Humidity,HourlyPrecipIn,Conditions,Clouds,dailyrainin,SoftwareType,DateUTC
2013-02-17 00:00:00,52.6,36.9,30.16,WNW,283,3.0,8.0,55,0.00,,---,0.00,VWS V14.01,2013-02-17 05:00:00,
2013-02-17 00:02:00,52.5,36.8,30.16,NNE,13,5.0,5.0,55,0.00,,---,0.00,VWS V14.01,2013-02-17 05:02:00,
2013-02-17 00:05:00,52.4,36.7,30.16,West,281,4.0,9.0,55,0.00,,---,0.00,VWS V14.01,2013-02-17 05:05:00,
2013-02-17 00:06:00,52.4,36.7,30.16,WNW,290,2.0,9.0,55,0.00,,---,0.00,VWS V14.01,2013-02-17 05:06:00,
2013-02-17 00:07:00,52.4,36.7,30.16,WNW,292,4.0,4.0,55,0.00,,---,0.00,VWS V14.01,2013-02-17 05:07:00,
2013-02-17 00:10:00,52.3,36.6,30.16,NW,321,3.0,7.0,55,0.00,,---,0.00,VWS V14.01,2013-02-17 05:10:00,
2013-02-17 00:11:00,52.3,36.6,30.16,NNE,22,3.0,7.0,55,0.00,,---,0.00,VWS V14.01,2013-02-17 05:11:00,
2013-02-17 00:15:00,52.2,37.0,30.16,NNW,332,4.0,6.0,56,0.00,,---,0.00,VWS V14.01,2013-02-17 05:15:00,
2013-02-17 00:16:00,52.3,37.1,30.16,West,278,5.0,8.0,56,0.00,,---,0.00,VWS V14.01,2013-02-17 05:16:00,
2013-02-17 00:20:00,52.2,36.5,30.16,WNW,296,4.0,10.0,55,0.00,,---,0.00,VWS V14.01,2013-02-17 05:20:00,
2013-02-17 00:21:00,52.1,36.0,30.16,NW,311,2.0,3.0,54,0.00,,---,0.00,VWS V14.01,2013-02-17 05:21:00,
2013-02-17 00:24:00,52.1,36.0,30.16,NW,313,3.0,9.0,54,0.00,,---,0.00,VWS V14.01,2013-02-17 05:24:00,
2013-02-17 00:26:00,52.0,36.3,30.16,NW,321,7.0,9.0,55,0.00,,---,0.00,VWS V14.01,2013-02-17 05:26:00,
2013-02-17 00:27:00,52.0,36.3,30.16,NW,304,5.0,5.0,55,0.00,,---,0.00,VWS V14.01,2013-02-17 05:27:00,
2013-02-17 00:30:00,51.9,35.8,30.17,WSW,257,2.0,9.0,54,0.00,,---,0.00,VWS V14.01,2013-02-17 05:30:00,
2013-02-17 00:31:00,51.9,36.3,30.17,NW,305,2.0,3.0,55,0.00,,---,0.00,VWS V14.01,2013-02-17 05:31:00,
2013-02-17 00:32:00,51.9,36.3,30.17,NNW,330,2.0,5.0,55,0.00,,---,0.00,VWS V14.01,2013-02-17 05:32:00,
2013-02-17 00:36:00,51.8,35.7,30.17,NNW,329,4.0,13.0,54,0.00,,---,0.00,VWS V14.01,2013-02-17 05:36:00,
2013-02-17 00:38:00,51.7,35.6,30.17,WNW,293,7.0,10.0,54,0.00,,---,0.00,VWS V14.01,2013-02-17 05:38:00,
2013-02-17 00:41:00,51.6,35.5,30.17,WNW,297,3.0,10.0,54,0.00,,---,0.00,VWS V14.01,2013-02-17 05:41:00,
2013-02-17 00:42:00,51.6,35.5,30.17,WNW,289,5.0,5.0,54,0.00,,---,0.00,VWS V14.01,2013-02-17 05:42:00,
2013-02-17 00:44:00,51.6,36.0,30.17,WNW,290,1.0,5.0,55,0.00,,---,0.00,VWS V14.01,2013-02-17 05:44:00,
2013-02-17 00:45:00,51.5,35.9,30.17,NNW,335,1.0,5.0,55,0.00,,---,0.00,VWS V14.01,2013-02-17 05:45:00,
2013-02-17 00:46:00,51.5,35.9,30.17,NNW,335,2.0,5.0,55,0.00,,---,0.00,VWS V14.01,2013-02-17 05:46:00,
2013-02-17 00:47:00,51.5,35.4,30.17,WNW,289,4.0,6.0,54,0.00,,---,0.00,VWS V14.01,2013-02-17 05:47:00,
2013-02-17 00:49:00,51.4,35.3,30.18,NW,319,3.0,9.0,54,0.00,,---,0.00,VWS V14.01,2013-02-17 05:49:00,
2013-02-17 00:51:00,51.4,34.9,30.17,NW,309,3.0,9.0,53,0.00,,---,0.00,VWS V14.01,2013-02-17 05:51:00,
2013-02-17 00:52:00,51.4,34.9,30.17,West,272,3.0,4.0,53,0.00,,---,0.00,VWS V14.01,2013-02-17 05:52:00,
2013-02-17 00:53:00,51.4,34.9,30.17,WNW,296,2.0,5.0,53,0.00,,---,0.00,VWS V14.01,2013-02-17 05:53:00,
2013-02-17 00:55:00,51.4,34.9,30.17,WNW,293,3.0,5.0,53,0.00,,---,0.00,VWS V14.01,2013-02-17 05:55:00,
2013-02-17 00:57:00,51.4,34.4,30.17,WNW,301,4.0,5.0,52,0.00,,---,0.00,VWS V14.01,2013-02-17 05:57:00,
2013-02-17 00:58:00,51.4,34.4,30.17,WNW,300,1.0,5.0,52,0.00,,---,0.00,VWS V14.01,2013-02-17 05:58:00,
2013-02-17 00:59:00,51.4,34.4,30.17,West,267,3.0,5.0,52,0.00,,---,0.00,VWS V14.01,2013-02-17 05:59:00,
2013-02-17 01:02:00,51.3,34.3,30.18,NW,309,5.0,5.0,52,0.00,,---,0.00,VWS V14.01,2013-02-17 06:02:00,
2013-02-17 01:03:00,51.2,34.2,30.18,WNW,297,4.0,9.0,52,0.00,,---,0.00,VWS V14.01,2013-02-17 06:03:00,
2013-02-17 01:04:00,51.2,34.2,30.18,NNE,12,5.0,9.0,52,0.00,,---,0.00,VWS V14.01,2013-02-17 06:04:00,
2013-02-17 01:07:00,51.2,34.2,30.18,WNW,296,0.0,4.0,52,0.00,,---,0.00,VWS V14.01,2013-02-17 06:07:00,
2013-02-17 01:09:00,51.2,34.7,30.18,NW,323,3.0,4.0,53,0.00,,---,0.00,VWS V14.01,2013-02-17 06:09:00,
2013-02-17 01:10:00,51.1,34.6,30.18,WNW,282,2.0,4.0,53,0.00,,---,0.00,VWS V14.01,2013-02-17 06:10:00,
2013-02-17 01:12:00,51.0,33.5,30.18,WNW,288,3.0,3.0,51,0.00,,---,0.00,VWS V14.01,2013-02-17 06:12:00,
2013-02-17 01:14:00,51.0,33.5,30.18,West,275,2.0,5.0,51,0.00,,---,0.00,VWS V14.01,2013-02-17 06:14:00,
2013-02-17 01:15:00,50.9,33.4,30.18,West,275,2.0,5.0,51,0.00,,---,0.00,VWS V14.01,2013-02-17 06:15:00,
2013-02-17 01:17:00,50.9,33.4,30.19,West,262,3.0,5.0,51,0.00,,---,0.00,VWS V14.01,2013-02-17 06:17:00,
2013-02-17 01:19:00,50.8,33.3,30.18,NW,319,2.0,5.0,51,0.00,,---,0.00,VWS V14.01,2013-02-17 06:19:00,
2013-02-17 01:20:00,50.8,33.3,30.18,WNW,290,2.0,5.0,51,0.00,,---,0.00,VWS V14.01,2013-02-17 06:20:00,
2013-02-17 01:22:00,50.8,33.3,30.18,WNW,300,5.0,5.0,51,0.00,,---,0.00,VWS V14.01,2013-02-17 06:22:00,
2013-02-17 01:25:00,50.8,33.3,30.19,WNW,298,3.0,7.0,51,0.00,,---,0.00,VWS V14.01,2013-02-17 06:25:00,
2013-02-17 01:26:00,50.7,33.2,30.19,WNW,293,5.0,7.0,51,0.00,,---,0.00,VWS V14.01,2013-02-17 06:26:00,
2013-02-17 01:28:00,50.7,33.2,30.19,NW,317,3.0,5.0,51,0.00,,---,0.00,VWS V14.01,2013-02-17 06:28:00,
2013-02-17 01:30:00,50.6,33.2,30.19,NW,319,4.0,5.0,51,0.00,,---,0.00,VWS V14.01,2013-02-17 06:30:00,
2013-02-17 01:31:00,50.6,33.2,30.19,NW,324,4.0,4.0,51,0.00,,---,0.00,VWS V14.01,2013-02-17 06:31:00,
2013-02-17 01:33:00,50.5,33.1,30.18,NW,313,2.0,5.0,51,0.00,,---,0.00,VWS V14.01,2013-02-17 06:33:00,
2013-02-17 01:36:00,50.4,33.0,30.18,WNW,299,2.0,6.0,51,0.00,,---,0.00,VWS V14.01,2013-02-17 06:36:00,
2013-02-17 01:37:00,50.4,33.0,30.18,West,261,6.0,6.0,51,0.00,,---,0.00,VWS V14.01,2013-02-17 06:37:00,
2013-02-17 01:39:00,50.3,32.9,30.18,NW,312,3.0,7.0,51,0.00,,---,0.00,VWS V14.01,2013-02-17 06:39:00,
2013-02-17 01:40:00,50.3,32.9,30.19,NW,309,3.0,7.0,51,0.00,,---,0.00,VWS V14.01,2013-02-17 06:40:00,
2013-02-17 01:41:00,50.3,32.4,30.19,North,9,5.0,6.0,50,0.00,,---,0.00,VWS V14.01,2013-02-17 06:41:00,
2013-02-17 01:42:00,50.3,32.4,30.19,NW,306,5.0,6.0,50,0.00,,---,0.00,VWS V14.01,2013-02-17 06:42:00,
2013-02-17 01:44:00,50.2,32.3,30.19,NW,305,3.0,6.0,50,0.00,,---,0.00,VWS V14.01,2013-02-17 06:44:00,
2013-02-17 01:45:00,50.2,32.3,30.19,NW,311,3.0,6.0,50,0.00,,---,0.00,VWS V14.01,2013-02-17 06:45:00,
2013-02-17 01:46:00,50.2,32.3,30.19,WNW,302,3.0,5.0,50,0.00,,---,0.00,VWS V14.01,2013-02-17 06:46:00,
2013-02-17 01:48:00,50.2,32.3,30.19,NW,325,3.0,6.0,50,0.00,,---,0.00,VWS V14.01,2013-02-17 06:48:00,
2013-02-17 01:49:00,50.2,32.3,30.19,NW,325,2.0,7.0,50,0.00,,---,0.00,VWS V14.01,2013-02-17 06:49:00,
2013-02-17 01:51:00,50.1,31.7,30.19,NW,315,3.0,4.0,49,0.00,,---,0.00,VWS V14.01,2013-02-17 06:51:00,
2013-02-17 01:52:00,50.1,31.7,30.19,WNW,292,3.0,6.0,49,0.00,,---,0.00,VWS V14.01,2013-02-17 06:52:00,
2013-02-17 01:54:00,50.1,31.7,30.19,NNW,337,3.0,6.0,49,0.00,,---,0.00,VWS V14.01,2013-02-17 06:54:00,
2013-02-17 01:57:00,50.1,31.7,30.19,NNW,327,6.0,8.0,49,0.00,,---,0.00,VWS V14.01,2013-02-17 06:57:00,
2013-02-17 01:58:00,50.0,31.6,30.19,WNW,293,5.0,8.0,49,0.00,,---,0.00,VWS V14.01,2013-02-17 06:58:00,
2013-02-17 01:59:00,50.0,31.6,30.19,West,280,0.0,8.0,49,0.00,,---,0.00,VWS V14.01,2013-02-17 06:59:00,
2013-02-17 02:02:00,50.0,31.6,30.19,WNW,290,3.0,4.0,49,0.00,,---,0.00,VWS V14.01,2013-02-17 07:02:00,
2013-02-17 02:03:00,50.0,31.6,30.19,WNW,285,2.0,5.0,49,0.00,,---,0.00,VWS V14.01,2013-02-17 07:03:00,
2013-02-17 02:05:00,49.9,31.5,30.19,WNW,292,4.0,5.0,49,0.00,,---,0.00,VWS V14.01,2013-02-17 07:05:00,
2013-02-17 02:08:00,49.9,31.0,30.18,NW,317,2.0,5.0,48,0.00,,---,0.00,VWS V14.01,2013-02-17 07:08:00,
2013-02-17 02:11:00,49.8,30.9,30.19,NNW,338,1.0,5.0,48,0.00,,---,0.00,VWS V14.01,2013-02-17 07:11:00,
2013-02-17 02:13:00,49.7,31.3,30.18,WNW,288,2.0,7.0,49,0.00,,---,0.00,VWS V14.01,2013-02-17 07:13:00,
2013-02-17 02:14:00,49.6,31.2,30.19,NW,304,4.0,7.0,49,0.00,,---,0.00,VWS V14.01,2013-02-17 07:14:00,
2013-02-17 02:17:00,49.6,31.2,30.19,West,277,1.0,5.0,49,0.00,,---,0.00,VWS V14.01,2013-02-17 07:17:00,
2013-02-17 02:19:00,49.5,31.1,30.19,West,275,1.0,5.0,49,0.00,,---,0.00,VWS V14.01,2013-02-17 07:19:00,
2013-02-17 02:20:00,49.5,31.1,30.19,WNW,296,5.0,5.0,49,0.00,,---,0.00,VWS V14.01,2013-02-17 07:20:00,
2013-02-17 02:22:00,49.5,31.1,30.19,West,280,2.0,5.0,49,0.00,,---,0.00,VWS V14.01,2013-02-17 07:22:00,
2013-02-17 02:25:00,49.4,31.1,30.19,NNW,335,1.0,5.0,49,0.00,,---,0.00,VWS V14.01,2013-02-17 07:25:00,
2013-02-17 02:27:00,49.3,30.5,30.19,WNW,303,3.0,5.0,48,0.00,,---,0.00,VWS V14.01,2013-02-17 07:27:00,
2013-02-17 02:30:00,49.2,30.4,30.19,WNW,301,4.0,5.0,48,0.00,,---,0.00,VWS V14.01,2013-02-17 07:30:00,
2013-02-17 02:32:00,49.2,30.4,30.19,West,277,1.0,6.0,48,0.00,,---,0.00,VWS V14.01,2013-02-17 07:32:00,
2013-02-17 02:35:00,49.1,30.3,30.19,NW,322,2.0,15.0,48,0.00,,---,0.00,VWS V14.01,2013-02-17 07:35:00,
2013-02-17 02:36:00,49.1,30.3,30.19,NW,321,2.0,15.0,48,0.00,,---,0.00,VWS V14.01,2013-02-17 07:36:00,
2013-02-17 02:38:00,49.0,30.2,30.19,WNW,295,2.0,4.0,48,0.00,,---,0.00,VWS V14.01,2013-02-17 07:38:00,
2013-02-17 02:39:00,49.0,30.2,30.19,WNW,296,1.0,4.0,48,0.00,,---,0.00,VWS V14.01,2013-02-17 07:39:00,
2013-02-17 02:41:00,49.0,30.2,30.19,NNW,339,3.0,4.0,48,0.00,,---,0.00,VWS V14.01,2013-02-17 07:41:00,
2013-02-17 02:44:00,48.9,30.1,30.19,WNW,302,3.0,6.0,48,0.00,,---,0.00,VWS V14.01,2013-02-17 07:44:00,
2013-02-17 02:46:00,48.8,30.5,30.19,West,268,1.0,6.0,49,0.00,,---,0.00,VWS V14.01,2013-02-17 07:46:00,
2013-02-17 02:47:00,48.8,30.0,30.19,WNW,299,2.0,3.0,48,0.00,,---,0.00,VWS V14.01,2013-02-17 07:47:00,
2013-02-17 02:49:00,48.7,29.9,30.19,North,5,2.0,6.0,48,0.00,,---,0.00,VWS V14.01,2013-02-17 07:49:00,
2013-02-17 02:50:00,48.7,29.9,30.19,NW,325,2.0,6.0,48,0.00,,---,0.00,VWS V14.01,2013-02-17 07:50:00,
2013-02-17 02:51:00,48.6,29.8,30.19,West,272,1.0,1.0,48,0.00,,---,0.00,VWS V14.01,2013-02-17 07:51:00,
2013-02-17 02:53:00,48.6,30.3,30.19,West,273,1.0,2.0,49,0.00,,---,0.00,VWS V14.01,2013-02-17 07:53:00,
2013-02-17 02:54:00,48.5,30.2,30.19,West,273,1.0,2.0,49,0.00,,---,0.00,VWS V14.01,2013-02-17 07:54:00,
2013-02-17 02:55:00,48.5,30.2,30.19,West,273,1.0,2.0,49,0.00,,---,0.00,VWS V14.01,2013-02-17 07:55:00,
2013-02-17 02:57:00,48.4,30.1,30.19,North,355,1.0,7.0,49,0.00,,---,0.00,VWS V14.01,2013-02-17 07:57:00,
2013-02-17 02:58:00,48.4,30.1,30.19,NE,43,1.0,7.0,49,0.00,,---,0.00,VWS V14.01,2013-02-17 07:58:00,
2013-02-17 03:00:00,48.3,30.5,30.19,WNW,284,3.0,7.0,50,0.00,,---,0.00,VWS V14.01,2013-02-17 08:00:00,
2013-02-17 03:01:00,48.3,31.0,30.19,NNW,340,3.0,7.0,51,0.00,,---,0.00,VWS V14.01,2013-02-17 08:01:00,
2013-02-17 03:03:00,48.2,30.9,30.19,NNW,328,4.0,4.0,51,0.00,,---,0.00,VWS V14.01,2013-02-17 08:03:00,
2013-02-17 03:05:00,48.0,31.2,30.19,NNW,342,1.0,4.0,52,0.00,,---,0.00,VWS V14.01,2013-02-17 08:05:00,
2013-02-17 03:06:00,47.9,31.6,30.19,NW,322,4.0,4.0,53,0.00,,---,0.00,VWS V14.01,2013-02-17 08:06:00,
2013-02-17 03:08:00,47.8,31.5,30.19,NNW,336,3.0,7.0,53,0.00,,---,0.00,VWS V14.01,2013-02-17 08:08:00,
2013-02-17 03:09:00,47.7,31.4,30.19,NNW,336,1.0,7.0,53,0.00,,---,0.00,VWS V14.01,2013-02-17 08:09:00,
2013-02-17 03:11:00,47.6,31.3,30.19,NE,42,2.0,3.0,53,0.00,,---,0.00,VWS V14.01,2013-02-17 08:11:00,
2013-02-17 03:13:00,47.5,31.7,30.20,West,278,1.0,4.0,54,0.00,,---,0.00,VWS V14.01,2013-02-17 08:13:00,
2013-02-17 03:16:00,47.3,31.0,30.20,North,355,4.0,4.0,53,0.00,,---,0.00,VWS V14.01,2013-02-17 08:16:00,
2013-02-17 03:17:00,47.3,30.6,30.20,NW,325,3.0,5.0,52,0.00,,---,0.00,VWS V14.01,2013-02-17 08:17:00,
2013-02-17 03:18:00,47.2,30.5,30.20,NE,43,3.0,7.0,52,0.00,,---,0.00,VWS V14.01,2013-02-17 08:18:00,
2013-02-17 03:22:00,47.0,30.8,30.20,NW,307,3.0,4.0,53,0.00,,---,0.00,VWS V14.01,2013-02-17 08:22:00,
2013-02-17 03:23:00,46.9,30.2,30.20,NW,325,2.0,5.0,52,0.00,,---,0.00,VWS V14.01,2013-02-17 08:23:00,
2013-02-17 03:24:00,46.9,30.2,30.20,NNW,344,3.0,5.0,52,0.00,,---,0.00,VWS V14.01,2013-02-17 08:24:00,
2013-02-17 03:27:00,46.8,30.6,30.20,NNW,329,2.0,5.0,53,0.00,,---,0.00,VWS V14.01,2013-02-17 08:27:00,
2013-02-17 03:29:00,46.7,30.0,30.20,NNE,33,2.0,5.0,52,0.00,,---,0.00,VWS V14.01,2013-02-17 08:29:00,
2013-02-17 03:31:00,46.7,30.0,30.20,NNE,22,3.0,5.0,52,0.00,,---,0.00,VWS V14.01,2013-02-17 08:31:00,
2013-02-17 03:34:00,46.6,29.9,30.20,NNE,21,1.0,9.0,52,0.00,,---,0.00,VWS V14.01,2013-02-17 08:34:00,
2013-02-17 03:35:00,46.6,29.9,30.20,NNE,30,1.0,9.0,52,0.00,,---,0.00,VWS V14.01,2013-02-17 08:35:00,
2013-02-17 03:37:00,46.6,29.9,30.20,North,9,2.0,6.0,52,0.00,,---,0.00,VWS V14.01,2013-02-17 08:37:00,
2013-02-17 03:39:00,46.6,29.9,30.20,NW,309,2.0,7.0,52,0.00,,---,0.00,VWS V14.01,2013-02-17 08:39:00,
2013-02-17 03:40:00,46.6,30.4,30.20,North,5,4.0,7.0,53,0.00,,---,0.00,VWS V14.01,2013-02-17 08:40:00,
2013-02-17 03:41:00,46.6,30.4,30.20,North,5,0.0,0.0,53,0.00,,---,0.00,VWS V14.01,2013-02-17 08:41:00,
2013-02-17 03:42:00,46.6,30.4,30.20,NNW,329,3.0,6.0,53,0.00,,---,0.00,VWS V14.01,2013-02-17 08:42:00,
2013-02-17 03:46:00,46.5,29.8,30.20,NW,315,4.0,4.0,52,0.00,,---,0.00,VWS V14.01,2013-02-17 08:46:00,
2013-02-17 03:48:00,46.5,29.8,30.20,NNW,340,3.0,4.0,52,0.00,,---,0.00,VWS V14.01,2013-02-17 08:48:00,
2013-02-17 03:51:00,46.5,30.3,30.20,NW,326,4.0,6.0,53,0.00,,---,0.00,VWS V14.01,2013-02-17 08:51:00,
2013-02-17 03:52:00,46.5,30.3,30.20,NNW,336,1.0,6.0,53,0.00,,---,0.00,VWS V14.01,2013-02-17 08:52:00,
2013-02-17 03:53:00,46.5,30.3,30.20,NNW,336,0.0,6.0,53,0.00,,---,0.00,VWS V14.01,2013-02-17 08:53:00,
2013-02-17 03:55:00,46.4,30.7,30.20,NW,325,3.0,6.0,54,0.00,,---,0.00,VWS V14.01,2013-02-17 08:55:00,
2013-02-17 03:57:00,46.4,30.2,30.20,NNE,20,2.0,6.0,53,0.00,,---,0.00,VWS V14.01,2013-02-17 08:57:00,
2013-02-17 03:58:00,46.4,30.2,30.20,NNE,20,1.0,6.0,53,0.00,,---,0.00,VWS V14.01,2013-02-17 08:58:00,
2013-02-17 03:59:00,46.4,30.2,30.20,NNE,27,2.0,6.0,53,0.00,,---,0.00,VWS V14.01,2013-02-17 08:59:00,
2013-02-17 04:00:00,46.3,29.6,30.20,ENE,67,3.0,6.0,52,0.00,,---,0.00,VWS V14.01,2013-02-17 09:00:00,
2013-02-17 04:03:00,46.0,28.9,30.20,North,10,1.0,3.0,51,0.00,,---,0.00,VWS V14.01,2013-02-17 09:03:00,
2013-02-17 04:04:00,45.9,28.8,30.20,NNE,31,3.0,5.0,51,0.00,,---,0.00,VWS V14.01,2013-02-17 09:04:00,
2013-02-17 04:07:00,45.5,28.4,30.21,North,349,1.0,2.0,51,0.00,,---,0.00,VWS V14.01,2013-02-17 09:07:00,
2013-02-17 04:09:00,45.2,28.2,30.21,NNE,19,2.0,5.0,51,0.00,,---,0.00,VWS V14.01,2013-02-17 09:09:00,
2013-02-17 04:10:00,45.1,27.1,30.21,NE,36,4.0,5.0,49,0.00,,---,0.00,VWS V14.01,2013-02-17 09:10:00,
2013-02-17 04:12:00,44.9,27.4,30.21,NNE,32,2.0,2.0,50,0.00,,---,0.00,VWS V14.01,2013-02-17 09:12:00,
2013-02-17 04:15:00,44.7,27.2,30.21,NE,46,5.0,5.0,50,0.00,,---,0.00,VWS V14.01,2013-02-17 09:15:00,
2013-02-17 04:16:00,44.6,26.6,30.21,NE,55,3.0,3.0,49,0.00,,---,0.00,VWS V14.01,2013-02-17 09:16:00,
2013-02-17 04:20:00,44.2,25.8,30.21,North,5,3.0,5.0,48,0.00,,---,0.00,VWS V14.01,2013-02-17 09:20:00,
2013-02-17 04:21:00,44.1,25.7,30.21,NNE,24,2.0,5.0,48,0.00,,---,0.00,VWS V14.01,2013-02-17 09:21:00,
2013-02-17 04:22:00,44.1,26.2,30.21,NE,37,2.0,3.0,49,0.00,,---,0.00,VWS V14.01,2013-02-17 09:22:00,
2013-02-17 04:25:00,43.8,24.9,30.21,NNE,29,1.0,6.0,47,0.00,,---,0.00,VWS V14.01,2013-02-17 09:25:00,
2013-02-17 04:26:00,43.8,25.9,30.21,NNE,29,1.0,6.0,49,0.00,,---,0.00,VWS V14.01,2013-02-17 09:26:00,
2013-02-17 04:27:00,43.7,26.3,30.21,NNE,25,3.0,4.0,50,0.00,,---,0.00,VWS V14.01,2013-02-17 09:27:00,
2013-02-17 04:28:00,43.7,25.3,30.21,NNE,32,3.0,4.0,48,0.00,,---,0.00,VWS V14.01,2013-02-17 09:28:00,
2013-02-17 04:31:00,43.4,24.5,30.21,NNE,24,5.0,5.0,47,0.00,,---,0.00,VWS V14.01,2013-02-17 09:31:00,
2013-02-17 04:32:00,43.4,24.5,30.21,NNE,19,1.0,5.0,47,0.00,,---,0.00,VWS V14.01,2013-02-17 09:32:00,
2013-02-17 04:33:00,43.3,24.4,30.21,NNE,33,4.0,5.0,47,0.00,,---,0.00,VWS V14.01,2013-02-17 09:33:00,
2013-02-17 04:34:00,43.3,23.9,30.21,NE,34,1.0,5.0,46,0.00,,---,0.00,VWS V14.01,2013-02-17 09:34:00,
2013-02-17 04:36:00,43.2,23.8,30.21,NNE,14,2.0,4.0,46,0.00,,---,0.00,VWS V14.01,2013-02-17 09:36:00,
2013-02-17 04:37:00,43.1,23.7,30.21,North,360,2.0,4.0,46,0.00,,---,0.00,VWS V14.01,2013-02-17 09:37:00,
2013-02-17 04:38:00,43.1,23.7,30.21,NNE,22,4.0,4.0,46,0.00,,---,0.00,VWS V14.01,2013-02-17 09:38:00,
2013-02-17 04:40:00,43.1,23.7,30.21,NNE,29,2.0,6.0,46,0.00,,---,0.00,VWS V14.01,2013-02-17 09:40:00,
2013-02-17 04:41:00,43.0,23.6,30.21,NNE,30,2.0,2.0,46,0.00,,---,0.00,VWS V14.01,2013-02-17 09:41:00,
2013-02-17 04:42:00,43.0,23.6,30.22,NNE,28,3.0,3.0,46,0.00,,---,0.00,VWS V14.01,2013-02-17 09:42:00,
2013-02-17 04:44:00,43.0,23.6,30.22,NNE,14,3.0,7.0,46,0.00,,---,0.00,VWS V14.01,2013-02-17 09:44:00,
2013-02-17 04:47:00,42.9,23.6,30.22,NNW,335,3.0,7.0,46,0.00,,---,0.00,VWS V14.01,2013-02-17 09:47:00,
2013-02-17 04:48:00,42.9,23.6,30.22,North,5,6.0,7.0,46,0.00,,---,0.00,VWS V14.01,2013-02-17 09:48:00,
2013-02-17 04:49:00,42.9,23.0,30.22,NE,53,1.0,7.0,45,0.00,,---,0.00,VWS V14.01,2013-02-17 09:49:00,
2013-02-17 04:52:00,42.9,23.6,30.22,NNE,21,1.0,3.0,46,0.00,,---,0.00,VWS V14.01,2013-02-17 09:52:00,
2013-02-17 04:53:00,42.9,23.6,30.22,NNE,20,2.0,3.0,46,0.00,,---,0.00,VWS V14.01,2013-02-17 09:53:00,
2013-02-17 04:54:00,42.8,23.5,30.22,NNE,30,5.0,6.0,46,0.00,,---,0.00,VWS V14.01,2013-02-17 09:54:00,
2013-02-17 04:57:00,42.8,23.5,30.22,WSW,252,4.0,5.0,46,0.00,,---,0.00,VWS V14.01,2013-02-17 09:57:00,
2013-02-17 04:58:00,42.7,23.4,30.22,NNE,14,4.0,7.0,46,0.00,,---,0.00,VWS V14.01,2013-02-17 09:58:00,
2013-02-17 04:59:00,42.7,22.9,30.22,NE,34,4.0,7.0,45,0.00,,---,0.00,VWS V14.01,2013-02-17 09:59:00,
2013-02-17 05:03:00,42.7,22.3,30.22,NNE,32,2.0,8.0,44,0.00,,---,0.00,VWS V14.01,2013-02-17 10:03:00,
2013-02-17 05:04:00,42.7,22.3,30.23,NNE,32,2.0,8.0,44,0.00,,---,0.00,VWS V14.01,2013-02-17 10:04:00,
2013-02-17 05:05:00,42.6,22.2,30.23,NNE,32,2.0,8.0,44,0.00,,---,0.00,VWS V14.01,2013-02-17 10:05:00,
2013-02-17 05:06:00,42.6,22.8,30.23,NNE,15,2.0,8.0,45,0.00,,---,0.00,VWS V14.01,2013-02-17 10:06:00,
2013-02-17 05:09:00,42.6,22.2,30.23,ENE,67,1.0,4.0,44,0.00,,---,0.00,VWS V14.01,2013-02-17 10:09:00,
2013-02-17 05:10:00,42.6,22.8,30.23,NNE,29,2.0,5.0,45,0.00,,---,0.00,VWS V14.01,2013-02-17 10:10:00,
2013-02-17 05:11:00,42.6,22.2,30.23,NNE,26,3.0,6.0,44,0.00,,---,0.00,VWS V14.01,2013-02-17 10:11:00,
2013-02-17 05:12:00,42.6,22.2,30.23,NNE,26,2.0,9.0,44,0.00,,---,0.00,VWS V14.01,2013-02-17 10:12:00,
2013-02-17 05:14:00,42.5,22.1,30.23,North,355,2.0,9.0,44,0.00,,---,0.00,VWS V14.01,2013-02-17 10:14:00,
2013-02-17 05:16:00,42.5,22.1,30.23,NNE,24,4.0,9.0,44,0.00,,---,0.00,VWS V14.01,2013-02-17 10:16:00,
2013-02-17 05:18:00,42.5,22.1,30.23,NE,44,2.0,4.0,44,0.00,,---,0.00,VWS V14.01,2013-02-17 10:18:00,
2013-02-17 05:20:00,42.5,22.1,30.23,NNW,344,2.0,5.0,44,0.00,,---,0.00,VWS V14.01,2013-02-17 10:20:00,
2013-02-17 05:21:00,42.5,22.1,30.23,NE,40,2.0,5.0,44,0.00,,---,0.00,VWS V14.01,2013-02-17 10:21:00,
2013-02-17 05:23:00,42.4,22.0,30.24,NNE,24,2.0,4.0,44,0.00,,---,0.00,VWS V14.01,2013-02-17 10:23:00,
2013-02-17 05:24:00,42.4,22.6,30.24,NE,34,6.0,6.0,45,0.00,,---,0.00,VWS V14.01,2013-02-17 10:24:00,
2013-02-17 05:25:00,42.4,22.0,30.24,WNW,298,2.0,6.0,44,0.00,,---,0.00,VWS V14.01,2013-02-17 10:25:00,
2013-02-17 05:26:00,42.3,22.0,30.24,North,10,2.0,3.0,44,0.00,,---,0.00,VWS V14.01,2013-02-17 10:26:00,
2013-02-17 05:28:00,42.3,22.0,30.24,NE,38,3.0,5.0,44,0.00,,---,0.00,VWS V14.01,2013-02-17 10:28:00,
2013-02-17 05:29:00,42.2,21.9,30.24,NE,35,1.0,5.0,44,0.00,,---,0.00,VWS V14.01,2013-02-17 10:29:00,
2013-02-17 05:31:00,42.2,21.9,30.24,North,5,5.0,5.0,44,0.00,,---,0.00,VWS V14.01,2013-02-17 10:31:00,
2013-02-17 05:32:00,42.2,21.3,30.24,NNE,24,3.0,8.0,43,0.00,,---,0.00,VWS V14.01,2013-02-17 10:32:00,
2013-02-17 05:33:00,42.1,21.8,30.24,North,5,3.0,8.0,44,0.00,,---,0.00,VWS V14.01,2013-02-17 10:33:00,
2013-02-17 05:34:00,42.1,21.8,30.24,NNE,28,6.0,8.0,44,0.00,,---,0.00,VWS V14.01,2013-02-17 10:34:00,
2013-02-17 05:37:00,41.9,21.0,30.24,NNE,26,2.0,4.0,43,0.00,,---,0.00,VWS V14.01,2013-02-17 10:37:00,
2013-02-17 05:39:00,41.9,20.5,30.24,NE,40,3.0,7.0,42,0.00,,---,0.00,VWS V14.01,2013-02-17 10:39:00,
2013-02-17 05:40:00,41.8,21.0,30.25,NNE,16,1.0,7.0,43,0.00,,---,0.00,VWS V14.01,2013-02-17 10:40:00,
2013-02-17 05:42:00,41.8,21.5,30.25,North,355,2.0,2.0,44,0.00,,---,0.00,VWS V14.01,2013-02-17 10:42:00,
2013-02-17 05:44:00,41.6,20.8,30.25,NE,49,3.0,8.0,43,0.00,,---,0.00,VWS V14.01,2013-02-17 10:44:00,
2013-02-17 05:46:00,41.6,20.8,30.25,North,360,2.0,2.0,43,0.00,,---,0.00,VWS V14.01,2013-02-17 10:46:00,
2013-02-17 05:47:00,41.6,21.3,30.25,North,360,1.0,2.0,44,0.00,,---,0.00,VWS V14.01,2013-02-17 10:47:00,
2013-02-17 05:48:00,41.5,21.2,30.25,NNE,13,2.0,2.0,44,0.00,,---,0.00,VWS V14.01,2013-02-17 10:48:00,
2013-02-17 05:50:00,41.4,21.1,30.25,NE,38,2.0,4.0,44,0.00,,---,0.00,VWS V14.01,2013-02-17 10:50:00,
2013-02-17 05:52:00,41.4,20.6,30.25,North,349,6.0,7.0,43,0.00,,---,0.00,VWS V14.01,2013-02-17 10:52:00,
2013-02-17 05:53:00,41.3,20.5,30.25,North,5,3.0,7.0,43,0.00,,---,0.00,VWS V14.01,2013-02-17 10:53:00,
2013-02-17 05:56:00,41.3,21.0,30.25,North,360,1.0,7.0,44,0.00,,---,0.00,VWS V14.01,2013-02-17 10:56:00,
2013-02-17 05:58:00,41.2,20.4,30.25,North,360,3.0,6.0,43,0.00,,---,0.00,VWS V14.01,2013-02-17 10:58:00,
2013-02-17 05:59:00,41.2,20.4,30.25,NNE,22,1.0,6.0,43,0.00,,---,0.00,VWS V14.01,2013-02-17 10:59:00,
2013-02-17 06:01:00,41.1,20.3,30.25,NNW,341,3.0,7.0,43,0.00,,---,0.00,VWS V14.01,2013-02-17 11:01:00,
2013-02-17 06:03:00,41.1,20.9,30.25,NNW,342,1.0,7.0,44,0.00,,---,0.00,VWS V14.01,2013-02-17 11:03:00,
2013-02-17 06:04:00,41.1,20.9,30.25,NNE,16,3.0,7.0,44,0.00,,---,0.00,VWS V14.01,2013-02-17 11:04:00,
2013-02-17 06:07:00,41.0,20.8,30.26,NE,37,4.0,4.0,44,0.00,,---,0.00,VWS V14.01,2013-02-17 11:07:00,
2013-02-17 06:08:00,40.9,20.7,30.26,North,355,3.0,5.0,44,0.00,,---,0.00,VWS V14.01,2013-02-17 11:08:00,
2013-02-17 06:09:00,40.9,20.7,30.26,North,11,3.0,5.0,44,0.00,,---,0.00,VWS V14.01,2013-02-17 11:09:00,
2013-02-17 06:12:00,40.8,20.6,30.26,NE,35,2.0,3.0,44,0.00,,---,0.00,VWS V14.01,2013-02-17 11:12:00,
2013-02-17 06:14:00,40.7,20.5,30.26,North,5,1.0,7.0,44,0.00,,---,0.00,VWS V14.01,2013-02-17 11:14:00,
2013-02-17 06:16:00,40.7,20.5,30.26,NE,38,3.0,7.0,44,0.00,,---,0.00,VWS V14.01,2013-02-17 11:16:00,
2013-02-17 06:18:00,40.6,20.4,30.26,NE,45,1.0,4.0,44,0.00,,---,0.00,VWS V14.01,2013-02-17 11:18:00,
2013-02-17 06:20:00,40.6,20.4,30.26,NNE,18,2.0,4.0,44,0.00,,---,0.00,VWS V14.01,2013-02-17 11:20:00,
2013-02-17 06:22:00,40.5,20.9,30.26,NNE,19,3.0,3.0,45,0.00,,---,0.00,VWS V14.01,2013-02-17 11:22:00,
2013-02-17 06:23:00,40.5,20.9,30.26,North,355,2.0,5.0,45,0.00,,---,0.00,VWS V14.01,2013-02-17 11:23:00,
2013-02-17 06:25:00,40.4,20.8,30.26,North,5,2.0,5.0,45,0.00,,---,0.00,VWS V14.01,2013-02-17 11:25:00,
2013-02-17 06:27:00,40.3,20.7,30.26,NNW,332,3.0,6.0,45,0.00,,---,0.00,VWS V14.01,2013-02-17 11:27:00,
2013-02-17 06:28:00,40.3,20.7,30.27,North,5,1.0,6.0,45,0.00,,---,0.00,VWS V14.01,2013-02-17 11:28:00,
2013-02-17 06:31:00,40.2,20.6,30.27,North,360,1.0,6.0,45,0.00,,---,0.00,VWS V14.01,2013-02-17 11:31:00,
2013-02-17 06:33:00,40.2,20.6,30.27,NNW,340,2.0,6.0,45,0.00,,---,0.00,VWS V14.01,2013-02-17 11:33:00,
2013-02-17 06:34:00,40.1,20.5,30.27,NNE,22,4.0,6.0,45,0.00,,---,0.00,VWS V14.01,2013-02-17 11:34:00,
2013-02-17 06:36:00,40.1,20.5,30.27,NNE,23,2.0,6.0,45,0.00,,---,0.00,VWS V14.01,2013-02-17 11:36:00,
2013-02-17 06:37:00,40.0,20.4,30.27,North,5,3.0,3.0,45,0.00,,---,0.00,VWS V14.01,2013-02-17 11:37:00,
2013-02-17 06:39:00,40.0,20.4,30.27,NNE,24,1.0,7.0,45,0.00,,---,0.00,VWS V14.01,2013-02-17 11:39:00,
2013-02-17 06:42:00,39.9,20.3,30.27,North,355,2.0,9.0,45,0.00,,---,0.00,VWS V14.01,2013-02-17 11:42:00,
2013-02-17 06:44:00,39.8,20.2,30.27,NNW,339,3.0,9.0,45,0.00,,---,0.00,VWS V14.01,2013-02-17 11:44:00,
2013-02-17 06:45:00,39.8,20.7,30.27,NNE,17,2.0,9.0,46,0.00,,---,0.00,VWS V14.01,2013-02-17 11:45:00,
2013-02-17 06:47:00,39.7,20.6,30.27,NE,40,2.0,4.0,46,0.00,,---,0.00,VWS V14.01,2013-02-17 11:47:00,
2013-02-17 06:49:00,39.7,20.6,30.27,NE,37,4.0,8.0,46,0.00,,---,0.00,VWS V14.01,2013-02-17 11:49:00,
2013-02-17 06:50:00,39.7,20.1,30.27,WNW,303,7.0,8.0,45,0.00,,---,0.00,VWS V14.01,2013-02-17 11:50:00,
2013-02-17 06:53:00,39.7,20.1,30.27,North,355,5.0,6.0,45,0.00,,---,0.00,VWS V14.01,2013-02-17 11:53:00,
2013-02-17 06:55:00,39.7,19.6,30.27,NE,44,2.0,10.0,44,0.00,,---,0.00,VWS V14.01,2013-02-17 11:55:00,
2013-02-17 06:56:00,39.7,19.6,30.27,NNE,13,6.0,10.0,44,0.00,,---,0.00,VWS V14.01,2013-02-17 11:56:00,
2013-02-17 06:57:00,39.7,20.1,30.28,North,11,3.0,6.0,45,0.00,,---,0.00,VWS V14.01,2013-02-17 11:57:00,
2013-02-17 06:59:00,39.7,19.6,30.28,NNW,342,4.0,6.0,44,0.00,,---,0.00,VWS V14.01,2013-02-17 11:59:00,
2013-02-17 07:01:00,39.7,19.6,30.27,NE,39,2.0,3.0,44,0.00,,---,0.00,VWS V14.01,2013-02-17 12:01:00,
2013-02-17 07:03:00,39.7,19.6,30.28,NW,323,2.0,7.0,44,0.00,,---,0.00,VWS V14.01,2013-02-17 12:03:00,
2013-02-17 07:04:00,39.6,20.0,30.28,NNE,13,1.0,7.0,45,0.00,,---,0.00,VWS V14.01,2013-02-17 12:04:00,
2013-02-17 07:06:00,39.6,20.0,30.28,NNE,30,2.0,2.0,45,0.00,,---,0.00,VWS V14.01,2013-02-17 12:06:00,
2013-02-17 07:07:00,39.6,20.0,30.28,NNW,342,3.0,5.0,45,0.00,,---,0.00,VWS V14.01,2013-02-17 12:07:00,
2013-02-17 07:08:00,39.6,19.5,30.28,NNE,13,3.0,6.0,44,0.00,,---,0.00,VWS V14.01,2013-02-17 12:08:00,
2013-02-17 07:10:00,39.6,19.5,30.28,NNE,33,2.0,6.0,44,0.00,,---,0.00,VWS V14.01,2013-02-17 12:10:00,
2013-02-17 07:11:00,39.6,20.0,30.28,North,350,4.0,4.0,45,0.00,,---,0.00,VWS V14.01,2013-02-17 12:11:00,
2013-02-17 07:14:00,39.6,19.5,30.28,NNE,32,3.0,4.0,44,0.00,,---,0.00,VWS V14.01,2013-02-17 12:14:00,
2013-02-17 07:15:00,39.6,19.5,30.28,North,360,5.0,5.0,44,0.00,,---,0.00,VWS V14.01,2013-02-17 12:15:00,
2013-02-17 07:16:00,39.6,19.5,30.28,NW,323,3.0,8.0,44,0.00,,---,0.00,VWS V14.01,2013-02-17 12:16:00,
2013-02-17 07:17:00,39.6,19.5,30.28,NNW,347,2.0,3.0,44,0.00,,---,0.00,VWS V14.01,2013-02-17 12:17:00,
2013-02-17 07:19:00,39.6,19.5,30.28,NW,316,2.0,7.0,44,0.00,,---,0.00,VWS V14.01,2013-02-17 12:19:00,
2013-02-17 07:20:00,39.6,19.5,30.28,NE,52,3.0,7.0,44,0.00,,---,0.00,VWS V14.01,2013-02-17 12:20:00,
2013-02-17 07:22:00,39.6,19.5,30.28,NNE,27,4.0,6.0,44,0.00,,---,0.00,VWS V14.01,2013-02-17 12:22:00,
2013-02-17 07:25:00,39.6,20.0,30.28,NNW,344,4.0,6.0,45,0.00,,---,0.00,VWS V14.01,2013-02-17 12:25:00,
2013-02-17 07:26:00,39.6,19.5,30.28,NNE,16,3.0,3.0,44,0.00,,---,0.00,VWS V14.01,2013-02-17 12:26:00,
2013-02-17 07:27:00,39.6,19.5,30.28,NNE,26,4.0,9.0,44,0.00,,---,0.00,VWS V14.01,2013-02-17 12:27:00,
2013-02-17 07:29:00,39.6,19.5,30.28,North,355,3.0,9.0,44,0.00,,---,0.00,VWS V14.01,2013-02-17 12:29:00,
2013-02-17 07:31:00,39.7,19.6,30.29,NNW,344,0.0,3.0,44,0.00,,---,0.00,VWS V14.01,2013-02-17 12:31:00,
2013-02-17 07:32:00,39.7,19.6,30.29,North,351,2.0,3.0,44,0.00,,---,0.00,VWS V14.01,2013-02-17 12:32:00,
2013-02-17 07:33:00,39.6,20.0,30.29,WNW,296,2.0,4.0,45,0.00,,---,0.00,VWS V14.01,2013-02-17 12:33:00,
2013-02-17 07:35:00,39.7,19.6,30.29,NNE,17,2.0,5.0,44,0.00,,---,0.00,VWS V14.01,2013-02-17 12:35:00,
2013-02-17 07:37:00,39.7,20.1,30.29,NNE,30,4.0,6.0,45,0.00,,---,0.00,VWS V14.01,2013-02-17 12:37:00,
2013-02-17 07:39:00,39.7,19.6,30.29,NE,45,6.0,6.0,44,0.00,,---,0.00,VWS V14.01,2013-02-17 12:39:00,
2013-02-17 07:40:00,39.7,19.6,30.29,NNE,21,3.0,6.0,44,0.00,,---,0.00,VWS V14.01,2013-02-17 12:40:00,
2013-02-17 07:42:00,39.8,19.7,30.29,NNE,32,3.0,5.0,44,0.00,,---,0.00,VWS V14.01,2013-02-17 12:42:00,
2013-02-17 07:45:00,39.8,20.2,30.30,NNE,15,6.0,6.0,45,0.00,,---,0.00,VWS V14.01,2013-02-17 12:45:00,
2013-02-17 07:46:00,39.8,19.7,30.30,NNW,340,4.0,6.0,44,0.00,,---,0.00,VWS V14.01,2013-02-17 12:46:00,
2013-02-17 07:47:00,39.9,19.2,30.30,North,360,2.0,6.0,43,0.00,,---,0.00,VWS V14.01,2013-02-17 12:47:00,
2013-02-17 07:48:00,39.9,19.2,30.30,North,350,2.0,6.0,43,0.00,,---,0.00,VWS V14.01,2013-02-17 12:48:00,
2013-02-17 07:50:00,40.0,19.9,30.30,NNE,32,3.0,8.0,44,0.00,,---,0.00,VWS V14.01,2013-02-17 12:50:00,
2013-02-17 07:51:00,40.0,19.3,30.30,ENE,66,4.0,4.0,43,0.00,,---,0.00,VWS V14.01,2013-02-17 12:51:00,
2013-02-17 07:52:00,40.1,19.4,30.30,NNW,333,4.0,10.0,43,0.00,,---,0.00,VWS V14.01,2013-02-17 12:52:00,
2013-02-17 07:53:00,40.1,19.4,30.30,NNW,335,2.0,10.0,43,0.00,,---,0.00,VWS V14.01,2013-02-17 12:53:00,
2013-02-17 07:56:00,40.2,20.0,30.30,NE,36,3.0,10.0,44,0.00,,---,0.00,VWS V14.01,2013-02-17 12:56:00,
2013-02-17 07:58:00,40.3,19.0,30.30,NNE,28,2.0,9.0,42,0.00,,---,0.00,VWS V14.01,2013-02-17 12:58:00,
2013-02-17 07:59:00,40.4,19.7,30.30,NNE,12,2.0,9.0,43,0.00,,---,0.00,VWS V14.01,2013-02-17 12:59:00,
2013-02-17 08:01:00,40.4,19.7,30.30,NNE,28,4.0,5.0,43,0.00,,---,0.00,VWS V14.01,2013-02-17 13:01:00,
2013-02-17 08:05:00,40.6,19.9,30.30,NE,41,2.0,5.0,43,0.00,,---,0.00,VWS V14.01,2013-02-17 13:05:00,
2013-02-17 08:06:00,40.6,19.9,30.30,North,360,2.0,3.0,43,0.00,,---,0.00,VWS V14.01,2013-02-17 13:06:00,
2013-02-17 08:07:00,40.6,19.9,30.30,North,360,2.0,3.0,43,0.00,,---,0.00,VWS V14.01,2013-02-17 13:07:00,
2013-02-17 08:09:00,40.7,20.0,30.31,NNE,13,2.0,7.0,43,0.00,,---,0.00,VWS V14.01,2013-02-17 13:09:00,
2013-02-17 08:11:00,40.8,20.0,30.31,North,5,3.0,3.0,43,0.00,,---,0.00,VWS V14.01,2013-02-17 13:11:00,
2013-02-17 08:12:00,40.8,20.0,30.31,NW,322,2.0,4.0,43,0.00,,---,0.00,VWS V14.01,2013-02-17 13:12:00,
2013-02-17 08:14:00,40.9,20.1,30.31,NW,323,1.0,6.0,43,0.00,,---,0.00,VWS V14.01,2013-02-17 13:14:00,
2013-02-17 08:15:00,40.9,19.6,30.31,East,90,6.0,6.0,42,0.00,,---,0.00,VWS V14.01,2013-02-17 13:15:00,
2013-02-17 08:17:00,41.0,19.7,30.31,ENE,60,3.0,5.0,42,0.00,,---,0.00,VWS V14.01,2013-02-17 13:17:00,
2013-02-17 08:19:00,41.1,19.8,30.31,NNE,18,4.0,5.0,42,0.00,,---,0.00,VWS V14.01,2013-02-17 13:19:00,
2013-02-17 08:20:00,41.1,20.3,30.31,NNE,18,3.0,6.0,43,0.00,,---,0.00,VWS V14.01,2013-02-17 13:20:00,
2013-02-17 08:22:00,41.2,19.9,30.31,NW,314,4.0,4.0,42,0.00,,---,0.00,VWS V14.01,2013-02-17 13:22:00,
2013-02-17 08:25:00,41.3,20.0,30.31,ENE,63,3.0,7.0,42,0.00,,---,0.00,VWS V14.01,2013-02-17 13:25:00,
2013-02-17 08:26:00,41.4,20.0,30.32,NW,321,5.0,6.0,42,0.00,,---,0.00,VWS V14.01,2013-02-17 13:26:00,
2013-02-17 08:28:00,41.5,20.1,30.32,NE,46,4.0,6.0,42,0.00,,---,0.00,VWS V14.01,2013-02-17 13:28:00,
2013-02-17 08:30:00,41.6,19.7,30.32,NW,325,4.0,6.0,41,0.00,,---,0.00,VWS V14.01,2013-02-17 13:30:00,
2013-02-17 08:31:00,41.7,19.8,30.32,NNW,341,1.0,3.0,41,0.00,,---,0.00,VWS V14.01,2013-02-17 13:31:00,
2013-02-17 08:33:00,41.9,20.5,30.32,East,79,3.0,13.0,42,0.00,,---,0.00,VWS V14.01,2013-02-17 13:33:00,
2013-02-17 08:35:00,42.2,20.8,30.32,NNE,21,1.0,13.0,42,0.00,,---,0.00,VWS V14.01,2013-02-17 13:35:00,
2013-02-17 08:36:00,42.2,20.8,30.32,NNE,32,2.0,3.0,42,0.00,,---,0.00,VWS V14.01,2013-02-17 13:36:00,
2013-02-17 08:38:00,42.5,21.0,30.32,NE,46,2.0,3.0,42,0.00,,---,0.00,VWS V14.01,2013-02-17 13:38:00,
2013-02-17 08:41:00,42.9,21.4,30.32,NE,52,1.0,1.0,42,0.00,,---,0.00,VWS V14.01,2013-02-17 13:41:00,
2013-02-17 08:43:00,43.2,21.1,30.32,ENE,59,2.0,5.0,41,0.00,,---,0.00,VWS V14.01,2013-02-17 13:43:00,
2013-02-17 08:44:00,43.3,21.2,30.32,ENE,59,3.0,5.0,41,0.00,,---,0.00,VWS V14.01,2013-02-17 13:44:00,
2013-02-17 08:46:00,43.5,20.8,30.33,North,360,6.0,6.0,40,0.00,,---,0.00,VWS V14.01,2013-02-17 13:46:00,
2013-02-17 08:48:00,43.5,20.8,30.33,North,350,2.0,8.0,40,0.00,,---,0.00,VWS V14.01,2013-02-17 13:48:00,
2013-02-17 08:51:00,43.7,21.6,30.33,NE,46,6.0,6.0,41,0.00,,---,0.00,VWS V14.01,2013-02-17 13:51:00,
2013-02-17 08:53:00,43.8,21.1,30.33,NE,48,2.0,7.0,40,0.00,,---,0.00,VWS V14.01,2013-02-17 13:53:00,
2013-02-17 08:54:00,43.7,20.4,30.33,NE,42,3.0,7.0,39,0.00,,---,0.00,VWS V14.01,2013-02-17 13:54:00,
2013-02-17 08:58:00,43.8,21.1,30.33,NNE,29,2.0,7.0,40,0.00,,---,0.00,VWS V14.01,2013-02-17 13:58:00,
2013-02-17 08:59:00,43.8,21.1,30.33,NE,40,3.0,7.0,40,0.00,,---,0.00,VWS V14.01,2013-02-17 13:59:00,
2013-02-17 09:02:00,43.9,20.6,30.33,NE,40,4.0,8.0,39,0.00,,---,0.00,VWS V14.01,2013-02-17 14:02:00,
2013-02-17 09:03:00,43.9,20.6,30.34,NNW,328,5.0,9.0,39,0.00,,---,0.00,VWS V14.01,2013-02-17 14:03:00,
2013-02-17 09:05:00,43.9,21.2,30.33,NW,321,2.0,9.0,40,0.00,,---,0.00,VWS V14.01,2013-02-17 14:05:00,
2013-02-17 09:08:00,44.0,21.2,30.33,West,267,1.0,11.0,40,0.00,,---,0.00,VWS V14.01,2013-02-17 14:08:00,
2013-02-17 09:09:00,44.0,21.2,30.33,NNE,32,3.0,11.0,40,0.00,,---,0.00,VWS V14.01,2013-02-17 14:09:00,
2013-02-17 09:10:00,44.2,22.0,30.34,NNW,339,3.0,11.0,41,0.00,,---,0.00,VWS V14.01,2013-02-17 14:10:00,
2013-02-17 09:11:00,44.2,21.4,30.34,NNW,335,4.0,8.0,40,0.00,,---,0.00,VWS V14.01,2013-02-17 14:11:00,
2013-02-17 09:13:00,44.2,21.4,30.34,NE,49,3.0,10.0,40,0.00,,---,0.00,VWS V14.01,2013-02-17 14:13:00,
2013-02-17 09:14:00,44.2,21.4,30.34,North,11,4.0,10.0,40,0.00,,---,0.00,VWS V14.01,2013-02-17 14:14:00,
2013-02-17 09:16:00,44.2,21.4,30.34,NE,46,4.0,10.0,40,0.00,,---,0.00,VWS V14.01,2013-02-17 14:16:00,
2013-02-17 09:17:00,44.2,22.0,30.34,NNE,28,1.0,6.0,41,0.00,,---,0.00,VWS V14.01,2013-02-17 14:17:00,
2013-02-17 09:18:00,44.3,22.7,30.34,NNE,28,2.0,6.0,42,0.00,,---,0.00,VWS V14.01,2013-02-17 14:18:00,
2013-02-17 09:19:00,44.5,23.4,30.34,North,5,3.0,6.0,43,0.00,,---,0.00,VWS V14.01,2013-02-17 14:19:00,
2013-02-17 09:23:00,44.9,23.2,30.34,NNE,30,3.0,4.0,42,0.00,,---,0.00,VWS V14.01,2013-02-17 14:23:00,
2013-02-17 09:25:00,45.2,22.3,30.34,NE,34,7.0,12.0,40,0.00,,---,0.00,VWS V14.01,2013-02-17 14:25:00,
2013-02-17 09:28:00,45.2,22.3,30.34,NNE,13,2.0,12.0,40,0.00,,---,0.00,VWS V14.01,2013-02-17 14:28:00,
2013-02-17 09:30:00,45.3,22.4,30.34,NE,40,4.0,12.0,40,0.00,,---,0.00,VWS V14.01,2013-02-17 14:30:00,
2013-02-17 09:33:00,45.2,22.3,30.34,NNE,31,5.0,6.0,40,0.00,,---,0.00,VWS V14.01,2013-02-17 14:33:00,
2013-02-17 09:34:00,45.2,21.7,30.34,NE,39,1.0,6.0,39,0.00,,---,0.00,VWS V14.01,2013-02-17 14:34:00,
2013-02-17 09:35:00,45.2,22.3,30.34,NE,49,2.0,6.0,40,0.00,,---,0.00,VWS V14.01,2013-02-17 14:35:00,
2013-02-17 09:38:00,45.3,23.0,30.34,NNW,344,6.0,9.0,41,0.00,,---,0.00,VWS V14.01,2013-02-17 14:38:00,
2013-02-17 09:39:00,45.3,23.0,30.34,North,5,4.0,9.0,41,0.00,,---,0.00,VWS V14.01,2013-02-17 14:39:00,
2013-02-17 09:40:00,45.3,23.6,30.34,North,5,2.0,9.0,42,0.00,,---,0.00,VWS V14.01,2013-02-17 14:40:00,
2013-02-17 09:41:00,45.3,23.6,30.34,WNW,287,5.0,9.0,42,0.00,,---,0.00,VWS V14.01,2013-02-17 14:41:00,
2013-02-17 09:43:00,45.4,22.5,30.35,North,355,4.0,6.0,40,0.00,,---,0.00,VWS V14.01,2013-02-17 14:43:00,
2013-02-17 09:45:00,45.3,21.8,30.34,NW,320,2.0,8.0,39,0.00,,---,0.00,VWS V14.01,2013-02-17 14:45:00,
2013-02-17 09:46:00,45.2,21.7,30.34,NNW,337,4.0,8.0,39,0.00,,---,0.00,VWS V14.01,2013-02-17 14:46:00,
2013-02-17 09:48:00,45.2,22.9,30.34,North,11,2.0,4.0,41,0.00,,---,0.00,VWS V14.01,2013-02-17 14:48:00,
2013-02-17 09:51:00,45.5,23.8,30.34,NW,304,2.0,2.0,42,0.00,,---,0.00,VWS V14.01,2013-02-17 14:51:00,
2013-02-17 09:52:00,45.6,23.9,30.34,NNW,329,0.0,3.0,42,0.00,,---,0.00,VWS V14.01,2013-02-17 14:52:00,
2013-02-17 09:54:00,45.8,24.0,30.34,North,355,2.0,3.0,42,0.00,,---,0.00,VWS V14.01,2013-02-17 14:54:00,
2013-02-17 09:56:00,46.2,23.8,30.34,ENE,67,3.0,6.0,41,0.00,,---,0.00,VWS V14.01,2013-02-17 14:56:00,
2013-02-17 09:58:00,46.5,23.5,30.35,NNW,344,2.0,7.0,40,0.00,,---,0.00,VWS V14.01,2013-02-17 14:58:00,
2013-02-17 09:59:00,46.5,24.1,30.34,North,360,3.0,7.0,41,0.00,,---,0.00,VWS V14.01,2013-02-17 14:59:00,
2013-02-17 10:02:00,46.6,24.8,30.34,North,349,1.0,13.0,42,0.00,,---,0.00,VWS V14.01,2013-02-17 15:02:00,
2013-02-17 10:04:00,46.5,24.7,30.35,WNW,288,2.0,13.0,42,0.00,,---,0.00,VWS V14.01,2013-02-17 15:04:00,
2013-02-17 10:05:00,46.5,25.2,30.34,West,281,1.0,13.0,43,0.00,,---,0.00,VWS V14.01,2013-02-17 15:05:00,
2013-02-17 10:07:00,46.4,25.1,30.34,NNW,337,5.0,7.0,43,0.00,,---,0.00,VWS V14.01,2013-02-17 15:07:00,
2013-02-17 10:08:00,46.4,24.6,30.34,NNW,330,2.0,7.0,42,0.00,,---,0.00,VWS V14.01,2013-02-17 15:08:00,
2013-02-17 10:09:00,46.5,24.7,30.35,NNE,26,2.0,7.0,42,0.00,,---,0.00,VWS V14.01,2013-02-17 15:09:00,
2013-02-17 10:11:00,46.6,24.8,30.35,North,355,4.0,7.0,42,0.00,,---,0.00,VWS V14.01,2013-02-17 15:11:00,
2013-02-17 10:12:00,46.7,24.8,30.34,WNW,295,3.0,5.0,42,0.00,,---,0.00,VWS V14.01,2013-02-17 15:12:00,
2013-02-17 10:13:00,46.7,24.8,30.34,North,5,0.0,5.0,42,0.00,,---,0.00,VWS V14.01,2013-02-17 15:13:00,
2013-02-17 10:15:00,46.8,24.9,30.34,NNE,23,3.0,7.0,42,0.00,,---,0.00,VWS V14.01,2013-02-17 15:15:00,
2013-02-17 10:17:00,47.0,25.1,30.34,North,360,4.0,10.0,42,0.00,,---,0.00,VWS V14.01,2013-02-17 15:17:00,
2013-02-17 10:18:00,46.9,23.9,30.34,NNW,344,4.0,10.0,40,0.00,,---,0.00,VWS V14.01,2013-02-17 15:18:00,
2013-02-17 10:20:00,46.8,23.8,30.34,North,355,4.0,10.0,40,0.00,,---,0.00,VWS V14.01,2013-02-17 15:20:00,
2013-02-17 10:22:00,46.8,24.4,30.34,NNW,341,4.0,5.0,41,0.00,,---,0.00,VWS V14.01,2013-02-17 15:22:00,
2013-02-17 10:23:00,46.8,25.5,30.34,NNW,327,3.0,6.0,43,0.00,,---,0.00,VWS V14.01,2013-02-17 15:23:00,
2013-02-17 10:24:00,46.9,25.0,30.35,NNW,338,4.0,8.0,42,0.00,,---,0.00,VWS V14.01,2013-02-17 15:24:00,
2013-02-17 10:25:00,46.9,25.0,30.35,NE,51,3.0,8.0,42,0.00,,---,0.00,VWS V14.01,2013-02-17 15:25:00,
2013-02-17 10:28:00,47.2,25.3,30.35,WNW,296,3.0,7.0,42,0.00,,---,0.00,VWS V14.01,2013-02-17 15:28:00,
2013-02-17 10:29:00,47.2,25.3,30.35,NW,316,3.0,7.0,42,0.00,,---,0.00,VWS V14.01,2013-02-17 15:29:00,
2013-02-17 10:30:00,47.2,25.3,30.35,NNW,332,3.0,7.0,42,0.00,,---,0.00,VWS V14.01,2013-02-17 15:30:00,
2013-02-17 10:31:00,47.3,26.0,30.35,NE,39,2.0,7.0,43,0.00,,---,0.00,VWS V14.01,2013-02-17 15:31:00,
2013-02-17 10:34:00,47.6,25.7,30.35,NW,326,4.0,11.0,42,0.00,,---,0.00,VWS V14.01,2013-02-17 15:34:00,
2013-02-17 10:35:00,47.6,25.7,30.35,NNE,13,3.0,11.0,42,0.00,,---,0.00,VWS V14.01,2013-02-17 15:35:00,
2013-02-17 10:36:00,47.6,25.7,30.35,NNE,12,2.0,11.0,42,0.00,,---,0.00,VWS V14.01,2013-02-17 15:36:00,
2013-02-17 10:40:00,48.2,26.8,30.35,NNW,334,6.0,6.0,43,0.00,,---,0.00,VWS V14.01,2013-02-17 15:40:00,
2013-02-17 10:41:00,48.2,26.2,30.35,NNW,343,3.0,6.0,42,0.00,,---,0.00,VWS V14.01,2013-02-17 15:41:00,
2013-02-17 10:45:00,48.5,26.5,30.35,North,10,4.0,9.0,42,0.00,,---,0.00,VWS V14.01,2013-02-17 15:45:00,
2013-02-17 10:47:00,48.5,27.0,30.35,NNW,346,1.0,4.0,43,0.00,,---,0.00,VWS V14.01,2013-02-17 15:47:00,
2013-02-17 10:50:00,48.5,28.1,30.35,WNW,286,2.0,8.0,45,0.00,,---,0.00,VWS V14.01,2013-02-17 15:50:00,
2013-02-17 10:52:00,48.4,28.0,30.35,NW,316,2.0,5.0,45,0.00,,---,0.00,VWS V14.01,2013-02-17 15:52:00,
2013-02-17 10:53:00,48.4,28.0,30.35,West,275,4.0,5.0,45,0.00,,---,0.00,VWS V14.01,2013-02-17 15:53:00,
2013-02-17 10:55:00,48.4,28.0,30.35,NW,310,1.0,7.0,45,0.00,,---,0.00,VWS V14.01,2013-02-17 15:55:00,
2013-02-17 10:59:00,48.8,28.4,30.35,NNW,331,1.0,5.0,45,0.00,,---,0.00,VWS V14.01,2013-02-17 15:59:00,
2013-02-17 11:00:00,48.8,28.4,30.35,WNW,297,2.0,7.0,45,0.00,,---,0.00,VWS V14.01,2013-02-17 16:00:00,
2013-02-17 11:01:00,48.8,28.4,30.35,NNW,329,1.0,7.0,45,0.00,,---,0.00,VWS V14.01,2013-02-17 16:01:00,
2013-02-17 11:05:00,49.1,28.7,30.35,NNW,337,2.0,8.0,45,0.00,,---,0.00,VWS V14.01,2013-02-17 16:05:00,
2013-02-17 11:07:00,49.4,29.0,30.35,North,360,3.0,4.0,45,0.00,,---,0.00,VWS V14.01,2013-02-17 16:07:00,
2013-02-17 11:11:00,49.8,29.9,30.35,West,281,4.0,8.0,46,0.00,,---,0.00,VWS V14.01,2013-02-17 16:11:00,
2013-02-17 11:13:00,49.9,30.0,30.36,SW,227,3.0,9.0,46,0.00,,---,0.00,VWS V14.01,2013-02-17 16:13:00,
2013-02-17 11:16:00,49.5,28.5,30.36,ENE,67,3.0,10.0,44,0.00,,---,0.00,VWS V14.01,2013-02-17 16:16:00,
2013-02-17 11:18:00,49.4,29.0,30.36,NW,304,3.0,10.0,45,0.00,,---,0.00,VWS V14.01,2013-02-17 16:18:00,
2013-02-17 11:19:00,49.3,28.3,30.36,North,355,4.0,10.0,44,0.00,,---,0.00,VWS V14.01,2013-02-17 16:19:00,
2013-02-17 11:23:00,49.0,28.6,30.36,WNW,300,0.0,4.0,45,0.00,,---,0.00,VWS V14.01,2013-02-17 16:23:00,
2013-02-17 11:24:00,49.0,29.1,30.36,NNW,333,5.0,5.0,46,0.00,,---,0.00,VWS V14.01,2013-02-17 16:24:00,
2013-02-17 11:25:00,49.1,29.2,30.36,West,280,2.0,8.0,46,0.00,,---,0.00,VWS V14.01,2013-02-17 16:25:00,
2013-02-17 11:28:00,49.2,29.3,30.36,North,5,4.0,6.0,46,0.00,,---,0.00,VWS V14.01,2013-02-17 16:28:00,
2013-02-17 11:29:00,49.2,29.3,30.35,NE,38,5.0,6.0,46,0.00,,---,0.00,VWS V14.01,2013-02-17 16:29:00,
2013-02-17 11:30:00,49.3,29.4,30.36,NNW,327,4.0,6.0,46,0.00,,---,0.00,VWS V14.01,2013-02-17 16:30:00,
2013-02-17 11:34:00,49.4,29.0,30.36,NNW,344,13.0,13.0,45,0.00,,---,0.00,VWS V14.01,2013-02-17 16:34:00,
2013-02-17 11:35:00,49.5,29.1,30.36,NE,38,1.0,13.0,45,0.00,,---,0.00,VWS V14.01,2013-02-17 16:35:00,
2013-02-17 11:36:00,49.5,29.1,30.36,NW,311,2.0,13.0,45,0.00,,---,0.00,VWS V14.01,2013-02-17 16:36:00,
2013-02-17 11:40:00,49.6,29.1,30.36,WNW,300,4.0,11.0,45,0.00,,---,0.00,VWS V14.01,2013-02-17 16:40:00,
2013-02-17 11:41:00,49.6,29.1,30.36,WNW,298,4.0,11.0,45,0.00,,---,0.00,VWS V14.01,2013-02-17 16:41:00,
2013-02-17 11:42:00,49.4,29.0,30.36,WNW,290,2.0,4.0,45,0.00,,---,0.00,VWS V14.01,2013-02-17 16:42:00,
2013-02-17 11:46:00,49.1,28.1,30.36,NNW,338,5.0,5.0,44,0.00,,---,0.00,VWS V14.01,2013-02-17 16:46:00,
2013-02-17 11:47:00,49.0,28.6,30.36,North,5,2.0,5.0,45,0.00,,---,0.00,VWS V14.01,2013-02-17 16:47:00,
2013-02-17 11:48:00,49.1,28.7,30.35,WNW,282,10.0,10.0,45,0.00,,---,0.00,VWS V14.01,2013-02-17 16:48:00,
2013-02-17 11:51:00,49.4,30.0,30.35,West,263,2.0,2.0,47,0.00,,---,0.00,VWS V14.01,2013-02-17 16:51:00,
2013-02-17 11:52:00,49.6,30.2,30.35,NW,310,3.0,3.0,47,0.00,,---,0.00,VWS V14.01,2013-02-17 16:52:00,
2013-02-17 11:53:00,49.7,29.8,30.35,NNW,342,2.0,5.0,46,0.00,,---,0.00,VWS V14.01,2013-02-17 16:53:00,
2013-02-17 11:57:00,50.2,29.7,30.35,North,5,3.0,4.0,45,0.00,,---,0.00,VWS V14.01,2013-02-17 16:57:00,
2013-02-17 11:58:00,50.3,29.8,30.35,North,349,5.0,7.0,45,0.00,,---,0.00,VWS V14.01,2013-02-17 16:58:00,
2013-02-17 11:59:00,50.4,29.3,30.35,NNE,31,2.0,7.0,44,0.00,,---,0.00,VWS V14.01,2013-02-17 16:59:00,
2013-02-17 12:02:00,50.6,30.1,30.35,NNW,333,6.0,6.0,45,0.00,,---,0.00,VWS V14.01,2013-02-17 17:02:00,
2013-02-17 12:03:00,50.6,29.0,30.35,WNW,292,3.0,9.0,43,0.00,,---,0.00,VWS V14.01,2013-02-17 17:03:00,
2013-02-17 12:04:00,50.6,29.0,30.35,North,355,7.0,9.0,43,0.00,,---,0.00,VWS V14.01,2013-02-17 17:04:00,
2013-02-17 12:08:00,50.4,29.3,30.35,North,350,2.0,8.0,44,0.00,,---,0.00,VWS V14.01,2013-02-17 17:08:00,
2013-02-17 12:09:00,50.5,28.9,30.35,WNW,297,2.0,11.0,43,0.00,,---,0.00,VWS V14.01,2013-02-17 17:09:00,
2013-02-17 12:10:00,50.5,28.9,30.35,NNW,332,4.0,11.0,43,0.00,,---,0.00,VWS V14.01,2013-02-17 17:10:00,
2013-02-17 12:14:00,50.3,28.7,30.35,NW,308,2.0,6.0,43,0.00,,---,0.00,VWS V14.01,2013-02-17 17:14:00,
2013-02-17 12:15:00,50.2,28.6,30.35,West,276,4.0,6.0,43,0.00,,---,0.00,VWS V14.01,2013-02-17 17:15:00,
2013-02-17 12:16:00,50.1,28.5,30.36,WNW,282,2.0,6.0,43,0.00,,---,0.00,VWS V14.01,2013-02-17 17:16:00,
2013-02-17 12:20:00,49.8,28.8,30.35,WNW,298,3.0,8.0,44,0.00,,---,0.00,VWS V14.01,2013-02-17 17:20:00,
2013-02-17 12:21:00,49.8,28.8,30.35,WNW,300,2.0,3.0,44,0.00,,---,0.00,VWS V14.01,2013-02-17 17:21:00,
2013-02-17 12:23:00,49.8,28.8,30.35,WNW,285,4.0,8.0,44,0.00,,---,0.00,VWS V14.01,2013-02-17 17:23:00,
2013-02-17 12:26:00,49.7,28.7,30.35,WNW,297,3.0,8.0,44,0.00,,---,0.00,VWS V14.01,2013-02-17 17:26:00,
2013-02-17 12:28:00,49.6,28.6,30.35,NW,321,5.0,5.0,44,0.00,,---,0.00,VWS V14.01,2013-02-17 17:28:00,
2013-02-17 12:29:00,49.7,29.2,30.35,WNW,287,4.0,6.0,45,0.00,,---,0.00,VWS V14.01,2013-02-17 17:29:00,
2013-02-17 12:31:00,49.7,28.1,30.35,NW,311,5.0,6.0,43,0.00,,---,0.00,VWS V14.01,2013-02-17 17:31:00,
2013-02-17 12:32:00,49.7,28.1,30.35,NW,304,2.0,5.0,43,0.00,,---,0.00,VWS V14.01,2013-02-17 17:32:00,
2013-02-17 12:33:00,49.9,28.9,30.35,NNW,341,6.0,6.0,44,0.00,,---,0.00,VWS V14.01,2013-02-17 17:33:00,
2013-02-17 12:34:00,49.9,28.3,30.35,WNW,291,2.0,6.0,43,0.00,,---,0.00,VWS V14.01,2013-02-17 17:34:00,
2013-02-17 12:37:00,50.0,29.0,30.35,WSW,239,3.0,5.0,44,0.00,,---,0.00,VWS V14.01,2013-02-17 17:37:00,
2013-02-17 12:38:00,50.0,29.0,30.35,NW,317,2.0,5.0,44,0.00,,---,0.00,VWS V14.01,2013-02-17 17:38:00,
2013-02-17 12:41:00,50.2,28.0,30.34,WNW,288,5.0,5.0,42,0.00,,---,0.00,VWS V14.01,2013-02-17 17:41:00,
2013-02-17 12:42:00,50.2,27.4,30.34,WNW,298,2.0,5.0,41,0.00,,---,0.00,VWS V14.01,2013-02-17 17:42:00,
2013-02-17 12:43:00,50.1,27.3,30.34,NW,322,3.0,5.0,41,0.00,,---,0.00,VWS V14.01,2013-02-17 17:43:00,
2013-02-17 12:44:00,50.2,28.0,30.34,NNE,16,5.0,7.0,42,0.00,,---,0.00,VWS V14.01,2013-02-17 17:44:00,
2013-02-17 12:47:00,50.5,27.7,30.35,NNW,340,3.0,6.0,41,0.00,,---,0.00,VWS V14.01,2013-02-17 17:47:00,
2013-02-17 12:48:00,50.6,27.2,30.34,NW,324,4.0,7.0,40,0.00,,---,0.00,VWS V14.01,2013-02-17 17:48:00,
2013-02-17 12:49:00,50.7,27.9,30.34,WNW,301,2.0,7.0,41,0.00,,---,0.00,VWS V14.01,2013-02-17 17:49:00,
2013-02-17 12:52:00,50.8,28.0,30.34,NNE,21,6.0,7.0,41,0.00,,---,0.00,VWS V14.01,2013-02-17 17:52:00,
2013-02-17 12:54:00,50.8,27.4,30.34,NW,317,3.0,7.0,40,0.00,,---,0.00,VWS V14.01,2013-02-17 17:54:00,
2013-02-17 12:55:00,50.8,28.0,30.34,NNW,342,4.0,7.0,41,0.00,,---,0.00,VWS V14.01,2013-02-17 17:55:00,
2013-02-17 12:59:00,50.8,26.8,30.34,NNW,328,5.0,7.0,39,0.00,,---,0.00,VWS V14.01,2013-02-17 17:59:00,
2013-02-17 13:00:00,50.7,24.1,30.34,WNW,284,2.0,7.0,35,0.00,,---,0.00,VWS V14.01,2013-02-17 18:00:00,
2013-02-17 13:01:00,50.6,24.0,30.34,NE,42,3.0,7.0,35,0.00,,---,0.00,VWS V14.01,2013-02-17 18:01:00,
2013-02-17 13:04:00,50.6,27.2,30.34,WNW,294,4.0,7.0,40,0.00,,---,0.00,VWS V14.01,2013-02-17 18:04:00,
2013-02-17 13:05:00,50.6,27.2,30.34,NW,310,4.0,7.0,40,0.00,,---,0.00,VWS V14.01,2013-02-17 18:05:00,
2013-02-17 13:06:00,50.5,27.7,30.34,WNW,286,3.0,7.0,41,0.00,,---,0.00,VWS V14.01,2013-02-17 18:06:00,
2013-02-17 13:09:00,50.4,27.6,30.34,West,276,1.0,6.0,41,0.00,,---,0.00,VWS V14.01,2013-02-17 18:09:00,
2013-02-17 13:10:00,50.5,27.7,30.34,NNW,333,2.0,6.0,41,0.00,,---,0.00,VWS V14.01,2013-02-17 18:10:00,
2013-02-17 13:12:00,50.5,27.1,30.34,SW,235,1.0,4.0,40,0.00,,---,0.00,VWS V14.01,2013-02-17 18:12:00,
2013-02-17 13:15:00,50.6,28.4,30.34,WNW,290,4.0,5.0,42,0.00,,---,0.00,VWS V14.01,2013-02-17 18:15:00,
2013-02-17 13:17:00,50.5,27.7,30.33,NW,326,3.0,5.0,41,0.00,,---,0.00,VWS V14.01,2013-02-17 18:17:00,
2013-02-17 13:20:00,50.5,28.9,30.33,WSW,251,2.0,5.0,43,0.00,,---,0.00,VWS V14.01,2013-02-17 18:20:00,
2013-02-17 13:21:00,50.6,29.0,30.33,WSW,251,1.0,5.0,43,0.00,,---,0.00,VWS V14.01,2013-02-17 18:21:00,
2013-02-17 13:23:00,50.9,28.6,30.33,NW,308,3.0,10.0,42,0.00,,---,0.00,VWS V14.01,2013-02-17 18:23:00,
2013-02-17 13:26:00,51.0,28.7,30.33,NNW,331,3.0,10.0,42,0.00,,---,0.00,VWS V14.01,2013-02-17 18:26:00,
2013-02-17 13:27:00,51.0,29.3,30.33,North,355,6.0,6.0,43,0.00,,---,0.00,VWS V14.01,2013-02-17 18:27:00,
2013-02-17 13:28:00,51.0,28.7,30.33,WNW,301,3.0,9.0,42,0.00,,---,0.00,VWS V14.01,2013-02-17 18:28:00,
2013-02-17 13:31:00,50.9,28.6,30.33,NW,311,2.0,9.0,42,0.00,,---,0.00,VWS V14.01,2013-02-17 18:31:00,
2013-02-17 13:33:00,50.8,29.1,30.33,West,271,3.0,6.0,43,0.00,,---,0.00,VWS V14.01,2013-02-17 18:33:00,
2013-02-17 13:36:00,50.5,27.7,30.33,NW,304,1.0,2.0,41,0.00,,---,0.00,VWS V14.01,2013-02-17 18:36:00,
2013-02-17 13:37:00,50.5,27.7,30.33,WSW,253,6.0,7.0,41,0.00,,---,0.00,VWS V14.01,2013-02-17 18:37:00,
2013-02-17 13:38:00,50.4,27.6,30.33,WNW,294,2.0,7.0,41,0.00,,---,0.00,VWS V14.01,2013-02-17 18:38:00,
2013-02-17 13:39:00,50.4,27.6,30.33,WNW,293,4.0,7.0,41,0.00,,---,0.00,VWS V14.01,2013-02-17 18:39:00,
2013-02-17 13:41:00,50.5,28.3,30.33,WNW,286,3.0,3.0,42,0.00,,---,0.00,VWS V14.01,2013-02-17 18:41:00,
2013-02-17 13:42:00,50.6,27.8,30.33,NNW,340,2.0,6.0,41,0.00,,---,0.00,VWS V14.01,2013-02-17 18:42:00,
2013-02-17 13:44:00,50.8,28.0,30.33,West,266,0.0,6.0,41,0.00,,---,0.00,VWS V14.01,2013-02-17 18:44:00,
2013-02-17 13:45:00,50.9,28.6,30.33,West,269,4.0,6.0,42,0.00,,---,0.00,VWS V14.01,2013-02-17 18:45:00,
2013-02-17 13:46:00,51.0,27.5,30.33,West,273,1.0,4.0,40,0.00,,---,0.00,VWS V14.01,2013-02-17 18:46:00,
2013-02-17 13:47:00,51.0,28.1,30.33,West,273,3.0,4.0,41,0.00,,---,0.00,VWS V14.01,2013-02-17 18:47:00,
2013-02-17 13:49:00,50.9,27.5,30.33,West,281,5.0,5.0,40,0.00,,---,0.00,VWS V14.01,2013-02-17 18:49:00,
2013-02-17 13:50:00,50.8,28.0,30.32,West,279,2.0,5.0,41,0.00,,---,0.00,VWS V14.01,2013-02-17 18:50:00,
2013-02-17 13:53:00,50.6,27.2,30.32,WNW,290,3.0,5.0,40,0.00,,---,0.00,VWS V14.01,2013-02-17 18:53:00,
2013-02-17 13:55:00,50.4,27.0,30.32,West,259,2.0,5.0,40,0.00,,---,0.00,VWS V14.01,2013-02-17 18:55:00,
2013-02-17 13:58:00,50.2,26.8,30.32,NW,305,4.0,8.0,40,0.00,,---,0.00,VWS V14.01,2013-02-17 18:58:00,
2013-02-17 13:59:00,50.2,26.8,30.32,WSW,245,2.0,8.0,40,0.00,,---,0.00,VWS V14.01,2013-02-17 18:59:00,
2013-02-17 14:00:00,50.3,26.9,30.32,WNW,291,2.0,8.0,40,0.00,,---,0.00,VWS V14.01,2013-02-17 19:00:00,
2013-02-17 14:04:00,50.6,27.8,30.32,SSW,193,1.0,4.0,41,0.00,,---,0.00,VWS V14.01,2013-02-17 19:04:00,
2013-02-17 14:06:00,50.9,28.1,30.32,WNW,298,3.0,4.0,41,0.00,,---,0.00,VWS V14.01,2013-02-17 19:06:00,
2013-02-17 14:10:00,51.0,28.1,30.32,NNW,334,5.0,7.0,41,0.00,,---,0.00,VWS V14.01,2013-02-17 19:10:00,
2013-02-17 14:11:00,51.0,27.5,30.32,West,266,4.0,7.0,40,0.00,,---,0.00,VWS V14.01,2013-02-17 19:11:00,
2013-02-17 14:12:00,50.9,27.5,30.32,NW,309,3.0,7.0,40,0.00,,---,0.00,VWS V14.01,2013-02-17 19:12:00,
2013-02-17 14:15:00,50.7,29.0,30.32,NNW,342,4.0,8.0,43,0.00,,---,0.00,VWS V14.01,2013-02-17 19:15:00,
2013-02-17 14:16:00,50.7,29.0,30.32,West,281,2.0,8.0,43,0.00,,---,0.00,VWS V14.01,2013-02-17 19:16:00,
2013-02-17 14:18:00,50.6,27.2,30.32,NNW,339,5.0,7.0,40,0.00,,---,0.00,VWS V14.01,2013-02-17 19:18:00,
2013-02-17 14:20:00,50.6,27.2,30.31,West,276,2.0,7.0,40,0.00,,---,0.00,VWS V14.01,2013-02-17 19:20:00,
2013-02-17 14:21:00,50.6,27.2,30.31,North,350,2.0,5.0,40,0.00,,---,0.00,VWS V14.01,2013-02-17 19:21:00,
2013-02-17 14:22:00,50.6,27.8,30.31,NW,315,0.0,5.0,41,0.00,,---,0.00,VWS V14.01,2013-02-17 19:22:00,
2013-02-17 14:23:00,50.7,27.9,30.31,NW,324,3.0,5.0,41,0.00,,---,0.00,VWS V14.01,2013-02-17 19:23:00,
2013-02-17 14:25:00,50.9,26.8,30.32,NNE,19,1.0,8.0,39,0.00,,---,0.00,VWS V14.01,2013-02-17 19:25:00,
2013-02-17 14:26:00,51.0,26.9,30.31,NNW,328,3.0,5.0,39,0.00,,---,0.00,VWS V14.01,2013-02-17 19:26:00,
2013-02-17 14:28:00,51.0,26.3,30.31,NW,320,4.0,5.0,38,0.00,,---,0.00,VWS V14.01,2013-02-17 19:28:00,
2013-02-17 14:29:00,51.1,26.4,30.31,NNW,346,6.0,6.0,38,0.00,,---,0.00,VWS V14.01,2013-02-17 19:29:00,
2013-02-17 14:31:00,51.0,26.3,30.32,WNW,286,2.0,7.0,38,0.00,,---,0.00,VWS V14.01,2013-02-17 19:31:00,
2013-02-17 14:32:00,50.9,26.2,30.32,NW,304,5.0,6.0,38,0.00,,---,0.00,VWS V14.01,2013-02-17 19:32:00,
2013-02-17 14:34:00,50.7,26.0,30.32,NW,304,4.0,6.0,38,0.00,,---,0.00,VWS V14.01,2013-02-17 19:34:00,
2013-02-17 14:36:00,50.5,25.9,30.32,NW,324,4.0,4.0,38,0.00,,---,0.00,VWS V14.01,2013-02-17 19:36:00,
2013-02-17 14:37:00,50.4,25.1,30.32,WNW,290,2.0,4.0,37,0.00,,---,0.00,VWS V14.01,2013-02-17 19:37:00,
2013-02-17 14:38:00,50.4,25.8,30.32,WNW,291,3.0,4.0,38,0.00,,---,0.00,VWS V14.01,2013-02-17 19:38:00,
2013-02-17 14:39:00,50.3,26.3,30.32,ESE,118,2.0,9.0,39,0.00,,---,0.00,VWS V14.01,2013-02-17 19:39:00,
2013-02-17 14:41:00,50.4,27.0,30.31,NNW,336,2.0,4.0,40,0.00,,---,0.00,VWS V14.01,2013-02-17 19:41:00,
2013-02-17 14:43:00,50.5,27.7,30.31,WSW,245,3.0,5.0,41,0.00,,---,0.00,VWS V14.01,2013-02-17 19:43:00,
2013-02-17 14:44:00,50.6,27.8,30.31,West,280,2.0,5.0,41,0.00,,---,0.00,VWS V14.01,2013-02-17 19:44:00,
2013-02-17 14:46:00,50.8,26.8,30.31,WNW,289,3.0,11.0,39,0.00,,---,0.00,VWS V14.01,2013-02-17 19:46:00,
2013-02-17 14:48:00,50.7,27.3,30.31,West,272,1.0,4.0,40,0.00,,---,0.00,VWS V14.01,2013-02-17 19:48:00,
2013-02-17 14:49:00,50.7,27.3,30.31,West,273,1.0,4.0,40,0.00,,---,0.00,VWS V14.01,2013-02-17 19:49:00,
2013-02-17 14:50:00,50.8,28.0,30.31,SSE,148,1.0,6.0,41,0.00,,---,0.00,VWS V14.01,2013-02-17 19:50:00,
2013-02-17 14:51:00,50.9,28.6,30.31,WNW,289,5.0,6.0,42,0.00,,---,0.00,VWS V14.01,2013-02-17 19:51:00,
2013-02-17 14:53:00,51.1,25.8,30.31,NNW,337,5.0,6.0,37,0.00,,---,0.00,VWS V14.01,2013-02-17 19:53:00,
2013-02-17 14:54:00,51.1,25.8,30.31,NW,308,4.0,10.0,37,0.00,,---,0.00,VWS V14.01,2013-02-17 19:54:00,
2013-02-17 14:57:00,51.3,25.9,30.31,WNW,284,1.0,3.0,37,0.00,,---,0.00,VWS V14.01,2013-02-17 19:57:00,
2013-02-17 14:58:00,51.3,26.6,30.31,WNW,288,2.0,3.0,38,0.00,,---,0.00,VWS V14.01,2013-02-17 19:58:00,
2013-02-17 14:59:00,51.5,26.8,30.31,SW,236,4.0,4.0,38,0.00,,---,0.00,VWS V14.01,2013-02-17 19:59:00,
2013-02-17 15:01:00,51.5,26.8,30.31,WNW,286,1.0,2.0,38,0.00,,---,0.00,VWS V14.01,2013-02-17 20:01:00,
2013-02-17 15:03:00,51.3,27.2,30.31,WNW,286,1.0,4.0,39,0.00,,---,0.00,VWS V14.01,2013-02-17 20:03:00,
2013-02-17 15:04:00,51.3,27.8,30.31,WNW,301,5.0,6.0,40,0.00,,---,0.00,VWS V14.01,2013-02-17 20:04:00,
2013-02-17 15:06:00,51.3,27.2,30.31,WNW,284,2.0,2.0,39,0.00,,---,0.00,VWS V14.01,2013-02-17 20:06:00,
2013-02-17 15:08:00,51.4,28.5,30.31,NNW,333,2.0,8.0,41,0.00,,---,0.00,VWS V14.01,2013-02-17 20:08:00,
2013-02-17 15:09:00,51.4,28.5,30.31,West,281,2.0,8.0,41,0.00,,---,0.00,VWS V14.01,2013-02-17 20:09:00,
2013-02-17 15:10:00,51.4,28.5,30.31,WNW,295,3.0,8.0,41,0.00,,---,0.00,VWS V14.01,2013-02-17 20:10:00,
2013-02-17 15:13:00,51.2,28.3,30.31,WNW,286,2.0,7.0,41,0.00,,---,0.00,VWS V14.01,2013-02-17 20:13:00,
2013-02-17 15:14:00,51.0,28.1,30.31,NW,304,2.0,7.0,41,0.00,,---,0.00,VWS V14.01,2013-02-17 20:14:00,
2013-02-17 15:16:00,51.0,27.5,30.31,NW,314,3.0,4.0,40,0.00,,---,0.00,VWS V14.01,2013-02-17 20:16:00,
2013-02-17 15:18:00,51.0,26.3,30.31,SSE,161,1.0,4.0,38,0.00,,---,0.00,VWS V14.01,2013-02-17 20:18:00,
2013-02-17 15:20:00,51.0,27.5,30.31,NNW,341,4.0,5.0,40,0.00,,---,0.00,VWS V14.01,2013-02-17 20:20:00,
2013-02-17 15:22:00,51.2,27.1,30.31,NW,312,3.0,5.0,39,0.00,,---,0.00,VWS V14.01,2013-02-17 20:22:00,
2013-02-17 15:24:00,51.2,27.7,30.31,NNW,336,3.0,5.0,40,0.00,,---,0.00,VWS V14.01,2013-02-17 20:24:00,
2013-02-17 15:25:00,51.1,28.8,30.31,NNE,25,2.0,5.0,42,0.00,,---,0.00,VWS V14.01,2013-02-17 20:25:00,
2013-02-17 15:28:00,51.1,28.2,30.31,SSW,213,2.0,5.0,41,0.00,,---,0.00,VWS V14.01,2013-02-17 20:28:00,
2013-02-17 15:29:00,51.2,28.9,30.31,West,279,2.0,5.0,42,0.00,,---,0.00,VWS V14.01,2013-02-17 20:29:00,
2013-02-17 15:30:00,51.2,28.3,30.31,WNW,286,4.0,5.0,41,0.00,,---,0.00,VWS V14.01,2013-02-17 20:30:00,
2013-02-17 15:31:00,51.2,28.3,30.31,WNW,288,3.0,5.0,41,0.00,,---,0.00,VWS V14.01,2013-02-17 20:31:00,
2013-02-17 15:33:00,51.3,27.8,30.31,WNW,290,2.0,4.0,40,0.00,,---,0.00,VWS V14.01,2013-02-17 20:33:00,
2013-02-17 15:34:00,51.4,27.3,30.30,NNW,336,1.0,4.0,39,0.00,,---,0.00,VWS V14.01,2013-02-17 20:34:00,
2013-02-17 15:36:00,51.4,26.7,30.31,NW,310,2.0,4.0,38,0.00,,---,0.00,VWS V14.01,2013-02-17 20:36:00,
2013-02-17 15:38:00,51.4,26.7,30.31,West,261,2.0,7.0,38,0.00,,---,0.00,VWS V14.01,2013-02-17 20:38:00,
2013-02-17 15:39:00,51.4,26.7,30.31,WSW,253,3.0,10.0,38,0.00,,---,0.00,VWS V14.01,2013-02-17 20:39:00,
2013-02-17 15:40:00,51.4,26.7,30.31,NNW,344,3.0,10.0,38,0.00,,---,0.00,VWS V14.01,2013-02-17 20:40:00,
2013-02-17 15:41:00,51.3,26.6,30.31,WNW,296,3.0,10.0,38,0.00,,---,0.00,VWS V14.01,2013-02-17 20:41:00,
2013-02-17 15:44:00,51.1,26.4,30.31,West,270,3.0,6.0,38,0.00,,---,0.00,VWS V14.01,2013-02-17 20:44:00,
2013-02-17 15:45:00,51.1,25.8,30.31,NW,307,5.0,6.0,37,0.00,,---,0.00,VWS V14.01,2013-02-17 20:45:00,
2013-02-17 15:46:00,51.1,25.1,30.31,NW,317,2.0,6.0,36,0.00,,---,0.00,VWS V14.01,2013-02-17 20:46:00,
2013-02-17 15:50:00,51.2,27.1,30.31,NW,320,2.0,5.0,39,0.00,,---,0.00,VWS V14.01,2013-02-17 20:50:00,
2013-02-17 15:51:00,51.3,27.8,30.31,West,276,2.0,5.0,40,0.00,,---,0.00,VWS V14.01,2013-02-17 20:51:00,
2013-02-17 15:55:00,51.6,26.8,30.31,WNW,286,1.0,4.0,38,0.00,,---,0.00,VWS V14.01,2013-02-17 20:55:00,
2013-02-17 15:56:00,51.7,26.9,30.31,WNW,286,1.0,1.0,38,0.00,,---,0.00,VWS V14.01,2013-02-17 20:56:00,
2013-02-17 15:57:00,51.8,27.0,30.31,WNW,286,2.0,2.0,38,0.00,,---,0.00,VWS V14.01,2013-02-17 20:57:00,
2013-02-17 15:58:00,51.9,27.1,30.31,WSW,242,2.0,3.0,38,0.00,,---,0.00,VWS V14.01,2013-02-17 20:58:00,
2013-02-17 16:01:00,51.8,26.4,30.30,SW,234,2.0,10.0,37,0.00,,---,0.00,VWS V14.01,2013-02-17 21:01:00,
2013-02-17 16:03:00,51.8,26.4,30.30,NW,308,4.0,7.0,37,0.00,,---,0.00,VWS V14.01,2013-02-17 21:03:00,
2013-02-17 16:06:00,51.4,26.0,30.30,NNW,330,3.0,4.0,37,0.00,,---,0.00,VWS V14.01,2013-02-17 21:06:00,
2013-02-17 16:07:00,51.4,26.0,30.30,NW,319,3.0,4.0,37,0.00,,---,0.00,VWS V14.01,2013-02-17 21:07:00,
2013-02-17 16:08:00,51.1,25.8,30.30,WNW,294,3.0,5.0,37,0.00,,---,0.00,VWS V14.01,2013-02-17 21:08:00,
2013-02-17 16:09:00,51.0,25.7,30.30,West,269,2.0,5.0,37,0.00,,---,0.00,VWS V14.01,2013-02-17 21:09:00,
2013-02-17 16:12:00,50.7,25.4,30.30,West,277,2.0,4.0,37,0.00,,---,0.00,VWS V14.01,2013-02-17 21:12:00,
2013-02-17 16:16:00,50.7,27.9,30.30,West,274,2.0,4.0,41,0.00,,---,0.00,VWS V14.01,2013-02-17 21:16:00,
2013-02-17 16:17:00,50.7,27.9,30.30,West,271,2.0,3.0,41,0.00,,---,0.00,VWS V14.01,2013-02-17 21:17:00,
2013-02-17 16:18:00,50.8,28.0,30.30,West,271,1.0,3.0,41,0.00,,---,0.00,VWS V14.01,2013-02-17 21:18:00,
2013-02-17 16:21:00,51.2,27.7,30.30,WNW,300,1.0,2.0,40,0.00,,---,0.00,VWS V14.01,2013-02-17 21:21:00,
2013-02-17 16:23:00,51.3,27.2,30.30,WNW,293,3.0,3.0,39,0.00,,---,0.00,VWS V14.01,2013-02-17 21:23:00,
2013-02-17 16:24:00,51.3,27.2,30.30,West,268,4.0,4.0,39,0.00,,---,0.00,VWS V14.01,2013-02-17 21:24:00,
2013-02-17 16:26:00,51.3,28.4,30.30,WSW,254,1.0,2.0,41,0.00,,---,0.00,VWS V14.01,2013-02-17 21:26:00,
2013-02-17 16:28:00,51.3,27.2,30.30,NNW,342,6.0,6.0,39,0.00,,---,0.00,VWS V14.01,2013-02-17 21:28:00,
2013-02-17 16:30:00,51.4,26.7,30.30,NNW,340,1.0,6.0,38,0.00,,---,0.00,VWS V14.01,2013-02-17 21:30:00,
2013-02-17 16:31:00,51.3,26.6,30.30,NNW,342,4.0,6.0,38,0.00,,---,0.00,VWS V14.01,2013-02-17 21:31:00,
2013-02-17 16:32:00,51.3,25.9,30.30,NNW,332,2.0,2.0,37,0.00,,---,0.00,VWS V14.01,2013-02-17 21:32:00,
2013-02-17 16:35:00,51.4,26.7,30.30,WNW,288,2.0,3.0,38,0.00,,---,0.00,VWS V14.01,2013-02-17 21:35:00,
2013-02-17 16:36:00,51.4,27.3,30.30,West,273,2.0,5.0,39,0.00,,---,0.00,VWS V14.01,2013-02-17 21:36:00,
2013-02-17 16:37:00,51.5,27.4,30.30,SSW,199,0.0,5.0,39,0.00,,---,0.00,VWS V14.01,2013-02-17 21:37:00,
2013-02-17 16:40:00,51.8,28.3,30.30,NW,309,1.0,5.0,40,0.00,,---,0.00,VWS V14.01,2013-02-17 21:40:00,
2013-02-17 16:42:00,51.9,26.5,30.30,NNE,23,5.0,7.0,37,0.00,,---,0.00,VWS V14.01,2013-02-17 21:42:00,
2013-02-17 16:43:00,51.8,26.4,30.30,NW,314,2.0,7.0,37,0.00,,---,0.00,VWS V14.01,2013-02-17 21:43:00,
2013-02-17 16:45:00,51.8,26.4,30.30,North,355,6.0,7.0,37,0.00,,---,0.00,VWS V14.01,2013-02-17 21:45:00,
2013-02-17 16:47:00,51.7,26.3,30.30,West,277,3.0,6.0,37,0.00,,---,0.00,VWS V14.01,2013-02-17 21:47:00,
2013-02-17 16:48:00,51.6,26.2,30.30,WNW,292,2.0,6.0,37,0.00,,---,0.00,VWS V14.01,2013-02-17 21:48:00,
2013-02-17 16:50:00,51.4,26.7,30.30,West,277,3.0,6.0,38,0.00,,---,0.00,VWS V14.01,2013-02-17 21:50:00,
2013-02-17 16:51:00,51.3,26.6,30.30,NW,306,3.0,6.0,38,0.00,,---,0.00,VWS V14.01,2013-02-17 21:51:00,
2013-02-17 16:53:00,51.2,26.5,30.30,NW,313,1.0,3.0,38,0.00,,---,0.00,VWS V14.01,2013-02-17 21:53:00,
2013-02-17 16:56:00,50.9,27.5,30.30,NW,314,2.0,3.0,40,0.00,,---,0.00,VWS V14.01,2013-02-17 21:56:00,
2013-02-17 16:57:00,50.8,27.4,30.30,NW,324,1.0,3.0,40,0.00,,---,0.00,VWS V14.01,2013-02-17 21:57:00,
2013-02-17 16:58:00,50.7,27.3,30.29,West,275,2.0,3.0,40,0.00,,---,0.00,VWS V14.01,2013-02-17 21:58:00,
2013-02-17 17:02:00,50.5,27.1,30.30,West,259,2.0,3.0,40,0.00,,---,0.00,VWS V14.01,2013-02-17 22:02:00,
2013-02-17 17:03:00,50.5,27.1,30.30,WNW,295,3.0,4.0,40,0.00,,---,0.00,VWS V14.01,2013-02-17 22:03:00,
2013-02-17 17:04:00,50.5,27.1,30.30,West,276,3.0,4.0,40,0.00,,---,0.00,VWS V14.01,2013-02-17 22:04:00,
2013-02-17 17:07:00,50.5,28.3,30.30,WNW,297,2.0,3.0,42,0.00,,---,0.00,VWS V14.01,2013-02-17 22:07:00,
2013-02-17 17:09:00,50.6,27.8,30.30,West,271,2.0,5.0,41,0.00,,---,0.00,VWS V14.01,2013-02-17 22:09:00,
2013-02-17 17:10:00,50.6,28.4,30.30,WSW,243,2.0,5.0,42,0.00,,---,0.00,VWS V14.01,2013-02-17 22:10:00,
2013-02-17 17:12:00,50.6,28.4,30.30,NNW,342,4.0,5.0,42,0.00,,---,0.00,VWS V14.01,2013-02-17 22:12:00,
2013-02-17 17:15:00,50.6,27.8,30.30,NW,323,0.0,5.0,41,0.00,,---,0.00,VWS V14.01,2013-02-17 22:15:00,
2013-02-17 17:16:00,50.6,28.4,30.30,North,360,3.0,5.0,42,0.00,,---,0.00,VWS V14.01,2013-02-17 22:16:00,
2013-02-17 17:18:00,50.7,28.5,30.30,WSW,250,3.0,4.0,42,0.00,,---,0.00,VWS V14.01,2013-02-17 22:18:00,
2013-02-17 17:21:00,50.7,29.0,30.30,West,267,2.0,4.0,43,0.00,,---,0.00,VWS V14.01,2013-02-17 22:21:00,
2013-02-17 17:22:00,50.6,29.0,30.30,WNW,287,4.0,4.0,43,0.00,,---,0.00,VWS V14.01,2013-02-17 22:22:00,
2013-02-17 17:23:00,50.5,28.9,30.30,West,269,3.0,4.0,43,0.00,,---,0.00,VWS V14.01,2013-02-17 22:23:00,
2013-02-17 17:27:00,50.0,29.0,30.30,West,278,1.0,2.0,44,0.00,,---,0.00,VWS V14.01,2013-02-17 22:27:00,
2013-02-17 17:28:00,49.9,28.9,30.30,West,278,2.0,3.0,44,0.00,,---,0.00,VWS V14.01,2013-02-17 22:28:00,
2013-02-17 17:32:00,49.5,28.5,30.30,WNW,293,1.0,2.0,44,0.00,,---,0.00,VWS V14.01,2013-02-17 22:32:00,
2013-02-17 17:33:00,49.5,28.5,30.30,WNW,293,1.0,2.0,44,0.00,,---,0.00,VWS V14.01,2013-02-17 22:33:00,
2013-02-17 17:34:00,49.4,29.0,30.30,SSW,212,0.0,2.0,45,0.00,,---,0.00,VWS V14.01,2013-02-17 22:34:00,
2013-02-17 17:38:00,49.4,29.0,30.30,West,281,2.0,3.0,45,0.00,,---,0.00,VWS V14.01,2013-02-17 22:38:00,
2013-02-17 17:39:00,49.4,29.0,30.30,WNW,288,2.0,4.0,45,0.00,,---,0.00,VWS V14.01,2013-02-17 22:39:00,
2013-02-17 17:40:00,49.3,28.9,30.30,WNW,288,0.0,4.0,45,0.00,,---,0.00,VWS V14.01,2013-02-17 22:40:00,
2013-02-17 17:43:00,49.1,28.7,30.30,West,271,0.0,2.0,45,0.00,,---,0.00,VWS V14.01,2013-02-17 22:43:00,
2013-02-17 17:44:00,49.1,29.2,30.30,West,271,0.0,2.0,46,0.00,,---,0.00,VWS V14.01,2013-02-17 22:44:00,
2013-02-17 17:46:00,49.0,29.1,30.30,West,273,1.0,2.0,46,0.00,,---,0.00,VWS V14.01,2013-02-17 22:46:00,
2013-02-17 17:49:00,48.9,28.0,30.30,West,265,0.0,3.0,44,0.00,,---,0.00,VWS V14.01,2013-02-17 22:49:00,
2013-02-17 17:51:00,48.8,27.9,30.30,North,355,4.0,4.0,44,0.00,,---,0.00,VWS V14.01,2013-02-17 22:51:00,
2013-02-17 17:54:00,48.8,28.4,30.30,WSW,247,1.0,6.0,45,0.00,,---,0.00,VWS V14.01,2013-02-17 22:54:00,
2013-02-17 17:55:00,48.7,28.3,30.30,WSW,248,2.0,6.0,45,0.00,,---,0.00,VWS V14.01,2013-02-17 22:55:00,
2013-02-17 17:56:00,48.7,28.3,30.30,West,279,3.0,6.0,45,0.00,,---,0.00,VWS V14.01,2013-02-17 22:56:00,
2013-02-17 18:00:00,48.6,28.2,30.30,West,280,1.0,3.0,45,0.00,,---,0.00,VWS V14.01,2013-02-17 23:00:00,
2013-02-17 18:01:00,48.6,28.2,30.30,West,280,1.0,3.0,45,0.00,,---,0.00,VWS V14.01,2013-02-17 23:01:00,
2013-02-17 18:02:00,48.6,28.8,30.30,West,280,1.0,2.0,46,0.00,,---,0.00,VWS V14.01,2013-02-17 23:02:00,
2013-02-17 18:05:00,48.5,28.7,30.31,WNW,285,2.0,3.0,46,0.00,,---,0.00,VWS V14.01,2013-02-17 23:05:00,
2013-02-17 18:06:00,48.5,28.7,30.31,WNW,285,0.0,3.0,46,0.00,,---,0.00,VWS V14.01,2013-02-17 23:06:00,
2013-02-17 18:07:00,48.5,28.7,30.31,NW,323,2.0,3.0,46,0.00,,---,0.00,VWS V14.01,2013-02-17 23:07:00,
2013-02-17 18:08:00,48.4,28.6,30.31,NW,323,1.0,3.0,46,0.00,,---,0.00,VWS V14.01,2013-02-17 23:08:00,
2013-02-17 18:11:00,48.3,29.0,30.31,NW,323,1.0,3.0,47,0.00,,---,0.00,VWS V14.01,2013-02-17 23:11:00,
2013-02-17 18:12:00,48.3,29.0,30.31,NW,323,0.0,1.0,47,0.00,,---,0.00,VWS V14.01,2013-02-17 23:12:00,
2013-02-17 18:13:00,48.2,28.9,30.31,NW,323,0.0,1.0,47,0.00,,---,0.00,VWS V14.01,2013-02-17 23:13:00,
2013-02-17 18:17:00,47.9,29.7,30.31,NW,323,0.0,0.0,49,0.00,,---,0.00,VWS V14.01,2013-02-17 23:17:00,
2013-02-17 18:18:00,47.9,29.7,30.31,NW,323,1.0,1.0,49,0.00,,---,0.00,VWS V14.01,2013-02-17 23:18:00,
2013-02-17 18:19:00,47.8,29.6,30.31,West,273,1.0,1.0,49,0.00,,---,0.00,VWS V14.01,2013-02-17 23:19:00,
2013-02-17 18:24:00,47.6,29.9,30.31,West,274,0.0,0.0,50,0.00,,---,0.00,VWS V14.01,2013-02-17 23:24:00,
2013-02-17 18:26:00,47.4,30.2,30.31,West,274,0.0,0.0,51,0.00,,---,0.00,VWS V14.01,2013-02-17 23:26:00,
2013-02-17 18:29:00,47.2,30.0,30.31,West,274,1.0,1.0,51,0.00,,---,0.00,VWS V14.01,2013-02-17 23:29:00,
2013-02-17 18:30:00,47.2,30.0,30.31,West,274,1.0,1.0,51,0.00,,---,0.00,VWS V14.01,2013-02-17 23:30:00,
2013-02-17 18:31:00,47.1,29.9,30.31,West,274,0.0,1.0,51,0.00,,---,0.00,VWS V14.01,2013-02-17 23:31:00,
2013-02-17 18:32:00,47.0,29.8,30.31,West,274,0.0,0.0,51,0.00,,---,0.00,VWS V14.01,2013-02-17 23:32:00,
2013-02-17 18:35:00,46.9,30.2,30.31,West,274,0.0,0.0,52,0.00,,---,0.00,VWS V14.01,2013-02-17 23:35:00,
2013-02-17 18:36:00,46.8,30.1,30.31,West,274,0.0,0.0,52,0.00,,---,0.00,VWS V14.01,2013-02-17 23:36:00,
2013-02-17 18:38:00,46.7,30.0,30.31,West,274,0.0,0.0,52,0.00,,---,0.00,VWS V14.01,2013-02-17 23:38:00,
2013-02-17 18:41:00,46.5,30.3,30.31,West,274,0.0,1.0,53,0.00,,---,0.00,VWS V14.01,2013-02-17 23:41:00,
2013-02-17 18:42:00,46.4,30.2,30.31,West,274,0.0,0.0,53,0.00,,---,0.00,VWS V14.01,2013-02-17 23:42:00,
2013-02-17 18:43:00,46.4,30.2,30.31,West,274,0.0,0.0,53,0.00,,---,0.00,VWS V14.01,2013-02-17 23:43:00,
2013-02-17 18:48:00,46.0,30.3,30.31,West,274,0.0,0.0,54,0.00,,---,0.00,VWS V14.01,2013-02-17 23:48:00,
2013-02-17 18:49:00,46.0,30.3,30.31,West,274,0.0,0.0,54,0.00,,---,0.00,VWS V14.01,2013-02-17 23:49:00,
2013-02-17 18:50:00,45.9,30.2,30.31,West,274,0.0,1.0,54,0.00,,---,0.00,VWS V14.01,2013-02-17 23:50:00,
2013-02-17 18:53:00,45.8,30.1,30.31,West,274,0.0,1.0,54,0.00,,---,0.00,VWS V14.01,2013-02-17 23:53:00,
2013-02-17 18:54:00,45.7,30.0,30.31,West,274,0.0,1.0,54,0.00,,---,0.00,VWS V14.01,2013-02-17 23:54:00,
2013-02-17 18:55:00,45.7,30.5,30.31,West,274,0.0,1.0,55,0.00,,---,0.00,VWS V14.01,2013-02-17 23:55:00,
2013-02-17 18:59:00,45.5,30.3,30.31,West,274,0.0,0.0,55,0.00,,---,0.00,VWS V14.01,2013-02-17 23:59:00,
2013-02-17 19:00:00,45.4,30.2,30.31,West,274,0.0,0.0,55,0.00,,---,0.00,VWS V14.01,2013-02-18 00:00:00,
2013-02-17 19:01:00,45.4,30.2,30.31,West,274,0.0,0.0,55,0.00,,---,0.00,VWS V14.01,2013-02-18 00:01:00,
2013-02-17 19:04:00,45.2,30.5,30.31,West,274,0.0,0.0,56,0.00,,---,0.00,VWS V14.01,2013-02-18 00:04:00,
2013-02-17 19:05:00,45.2,31.3,30.31,West,274,0.0,0.0,58,0.00,,---,0.00,VWS V14.01,2013-02-18 00:05:00,
2013-02-17 19:06:00,45.2,31.3,30.31,West,274,0.0,0.0,58,0.00,,---,0.00,VWS V14.01,2013-02-18 00:06:00,
2013-02-17 19:09:00,45.1,31.2,30.31,West,274,0.0,0.0,58,0.00,,---,0.00,VWS V14.01,2013-02-18 00:09:00,
2013-02-17 19:10:00,45.0,32.0,30.31,West,274,0.0,0.0,60,0.00,,---,0.00,VWS V14.01,2013-02-18 00:10:00,
2013-02-17 19:11:00,44.9,31.9,30.31,West,274,0.0,0.0,60,0.00,,---,0.00,VWS V14.01,2013-02-18 00:11:00,
2013-02-17 19:15:00,44.7,32.5,30.31,West,274,0.0,0.0,62,0.00,,---,0.00,VWS V14.01,2013-02-18 00:15:00,
2013-02-17 19:16:00,44.6,32.0,30.31,West,274,0.0,0.0,61,0.00,,---,0.00,VWS V14.01,2013-02-18 00:16:00,
2013-02-17 19:18:00,44.4,31.4,30.31,West,274,0.0,0.0,60,0.00,,---,0.00,VWS V14.01,2013-02-18 00:18:00,
2013-02-17 19:21:00,44.2,32.0,30.31,West,274,0.0,0.0,62,0.00,,---,0.00,VWS V14.01,2013-02-18 00:21:00,
2013-02-17 19:22:00,44.1,31.9,30.31,West,274,0.0,0.0,62,0.00,,---,0.00,VWS V14.01,2013-02-18 00:22:00,
2013-02-17 19:24:00,44.0,31.8,30.31,West,274,0.0,0.0,62,0.00,,---,0.00,VWS V14.01,2013-02-18 00:24:00,
2013-02-17 19:26:00,43.8,31.6,30.31,West,274,0.0,0.0,62,0.00,,---,0.00,VWS V14.01,2013-02-18 00:26:00,
2013-02-17 19:28:00,43.7,31.1,30.31,West,274,0.0,0.0,61,0.00,,---,0.00,VWS V14.01,2013-02-18 00:28:00,
2013-02-17 19:30:00,43.6,31.5,30.31,West,274,0.0,0.0,62,0.00,,---,0.00,VWS V14.01,2013-02-18 00:30:00,
2013-02-17 19:31:00,43.5,31.4,30.31,West,274,0.0,0.0,62,0.00,,---,0.00,VWS V14.01,2013-02-18 00:31:00,
2013-02-17 19:33:00,43.4,31.7,30.31,West,274,0.0,0.0,63,0.00,,---,0.00,VWS V14.01,2013-02-18 00:33:00,
2013-02-17 19:36:00,43.2,31.5,30.31,West,274,0.0,0.0,63,0.00,,---,0.00,VWS V14.01,2013-02-18 00:36:00,
2013-02-17 19:39:00,43.1,31.8,30.31,West,274,0.0,0.0,64,0.00,,---,0.00,VWS V14.01,2013-02-18 00:39:00,
2013-02-17 19:41:00,43.0,31.7,30.31,West,274,0.0,0.0,64,0.00,,---,0.00,VWS V14.01,2013-02-18 00:41:00,
2013-02-17 19:43:00,43.0,32.1,30.32,West,274,0.0,0.0,65,0.00,,---,0.00,VWS V14.01,2013-02-18 00:43:00,
2013-02-17 19:46:00,42.8,31.9,30.32,West,274,0.0,0.0,65,0.00,,---,0.00,VWS V14.01,2013-02-18 00:46:00,
2013-02-17 19:47:00,42.8,31.9,30.32,West,274,0.0,0.0,65,0.00,,---,0.00,VWS V14.01,2013-02-18 00:47:00,
2013-02-17 19:49:00,42.7,31.8,30.32,West,274,0.0,0.0,65,0.00,,---,0.00,VWS V14.01,2013-02-18 00:49:00,
2013-02-17 19:50:00,42.7,31.8,30.32,West,274,0.0,0.0,65,0.00,,---,0.00,VWS V14.01,2013-02-18 00:50:00,
2013-02-17 19:52:00,42.6,32.4,30.32,West,274,0.0,0.0,67,0.00,,---,0.00,VWS V14.01,2013-02-18 00:52:00,
2013-02-17 19:54:00,42.5,32.3,30.32,West,274,0.0,0.0,67,0.00,,---,0.00,VWS V14.01,2013-02-18 00:54:00,
2013-02-17 19:55:00,42.5,32.3,30.32,West,274,0.0,0.0,67,0.00,,---,0.00,VWS V14.01,2013-02-18 00:55:00,
2013-02-17 19:57:00,42.4,32.2,30.32,West,274,0.0,0.0,67,0.00,,---,0.00,VWS V14.01,2013-02-18 00:57:00,
2013-02-17 20:00:00,42.2,31.7,30.32,West,274,0.0,0.0,66,0.00,,---,0.00,VWS V14.01,2013-02-18 01:00:00,
2013-02-17 20:01:00,42.2,31.7,30.32,West,274,0.0,0.0,66,0.00,,---,0.00,VWS V14.01,2013-02-18 01:01:00,
2013-02-17 20:02:00,42.2,32.0,30.32,West,274,0.0,0.0,67,0.00,,---,0.00,VWS V14.01,2013-02-18 01:02:00,
2013-02-17 20:04:00,42.2,32.4,30.32,West,274,0.0,0.0,68,0.00,,---,0.00,VWS V14.01,2013-02-18 01:04:00,
2013-02-17 20:07:00,42.1,32.0,30.32,West,274,0.0,0.0,67,0.00,,---,0.00,VWS V14.01,2013-02-18 01:07:00,
2013-02-17 20:08:00,42.1,32.3,30.32,West,274,0.0,0.0,68,0.00,,---,0.00,VWS V14.01,2013-02-18 01:08:00,
2013-02-17 20:09:00,42.1,32.3,30.32,West,274,0.0,0.0,68,0.00,,---,0.00,VWS V14.01,2013-02-18 01:09:00,
2013-02-17 20:13:00,42.1,32.3,30.32,West,274,0.0,0.0,68,0.00,,---,0.00,VWS V14.01,2013-02-18 01:13:00,
2013-02-17 20:14:00,42.1,32.3,30.32,West,274,0.0,0.0,68,0.00,,---,0.00,VWS V14.01,2013-02-18 01:14:00,
2013-02-17 20:18:00,42.0,32.2,30.32,West,274,0.0,0.0,68,0.00,,---,0.00,VWS V14.01,2013-02-18 01:18:00,
2013-02-17 20:19:00,42.0,32.6,30.32,West,274,0.0,0.0,69,0.00,,---,0.00,VWS V14.01,2013-02-18 01:19:00,
2013-02-17 20:21:00,41.9,32.5,30.33,West,274,0.0,0.0,69,0.00,,---,0.00,VWS V14.01,2013-02-18 01:21:00,
2013-02-17 20:24:00,41.8,32.4,30.33,West,274,0.0,0.0,69,0.00,,---,0.00,VWS V14.01,2013-02-18 01:24:00,
2013-02-17 20:25:00,41.8,32.4,30.33,West,274,0.0,0.0,69,0.00,,---,0.00,VWS V14.01,2013-02-18 01:25:00,
2013-02-17 20:27:00,41.6,32.6,30.33,West,274,0.0,0.0,70,0.00,,---,0.00,VWS V14.01,2013-02-18 01:27:00,
2013-02-17 20:30:00,41.5,32.5,30.33,West,274,0.0,0.0,70,0.00,,---,0.00,VWS V14.01,2013-02-18 01:30:00,
2013-02-17 20:34:00,41.4,32.7,30.33,West,274,0.0,0.0,71,0.00,,---,0.00,VWS V14.01,2013-02-18 01:34:00,
2013-02-17 20:35:00,41.3,32.6,30.33,West,274,0.0,0.0,71,0.00,,---,0.00,VWS V14.01,2013-02-18 01:35:00,
2013-02-17 20:36:00,41.3,32.6,30.33,West,274,0.0,0.0,71,0.00,,---,0.00,VWS V14.01,2013-02-18 01:36:00,
2013-02-17 20:40:00,41.1,32.8,30.33,West,274,0.0,0.0,72,0.00,,---,0.00,VWS V14.01,2013-02-18 01:40:00,
2013-02-17 20:42:00,41.0,32.7,30.33,West,274,0.0,0.0,72,0.00,,---,0.00,VWS V14.01,2013-02-18 01:42:00,
2013-02-17 20:45:00,40.9,32.6,30.33,West,274,0.0,0.0,72,0.00,,---,0.00,VWS V14.01,2013-02-18 01:45:00,
2013-02-17 20:46:00,40.9,32.6,30.33,West,274,0.0,0.0,72,0.00,,---,0.00,VWS V14.01,2013-02-18 01:46:00,
2013-02-17 20:47:00,40.8,32.5,30.33,West,274,0.0,0.0,72,0.00,,---,0.00,VWS V14.01,2013-02-18 01:47:00,
2013-02-17 20:50:00,40.6,32.3,30.33,West,274,0.0,0.0,72,0.00,,---,0.00,VWS V14.01,2013-02-18 01:50:00,
2013-02-17 20:52:00,40.6,32.3,30.33,West,274,0.0,0.0,72,0.00,,---,0.00,VWS V14.01,2013-02-18 01:52:00,
2013-02-17 20:53:00,40.5,32.2,30.33,West,274,0.0,0.0,72,0.00,,---,0.00,VWS V14.01,2013-02-18 01:53:00,
2013-02-17 20:56:00,40.4,32.4,30.33,West,274,0.0,0.0,73,0.00,,---,0.00,VWS V14.01,2013-02-18 01:56:00,
2013-02-17 20:58:00,40.3,32.3,30.33,West,274,0.0,0.0,73,0.00,,---,0.00,VWS V14.01,2013-02-18 01:58:00,
2013-02-17 20:59:00,40.3,32.3,30.33,West,274,0.0,0.0,73,0.00,,---,0.00,VWS V14.01,2013-02-18 01:59:00,
2013-02-17 21:03:00,40.2,32.6,30.33,West,274,0.0,0.0,74,0.00,,---,0.00,VWS V14.01,2013-02-18 02:03:00,
2013-02-17 21:04:00,40.1,32.5,30.33,West,274,0.0,0.0,74,0.00,,---,0.00,VWS V14.01,2013-02-18 02:04:00,
2013-02-17 21:05:00,40.1,32.5,30.33,West,274,0.0,0.0,74,0.00,,---,0.00,VWS V14.01,2013-02-18 02:05:00,
2013-02-17 21:09:00,40.0,32.7,30.34,West,274,0.0,0.0,75,0.00,,---,0.00,VWS V14.01,2013-02-18 02:09:00,
2013-02-17 21:10:00,40.0,32.7,30.34,West,274,0.0,0.0,75,0.00,,---,0.00,VWS V14.01,2013-02-18 02:10:00,
2013-02-17 21:11:00,40.0,32.7,30.34,West,274,0.0,0.0,75,0.00,,---,0.00,VWS V14.01,2013-02-18 02:11:00,
2013-02-17 21:14:00,39.9,32.3,30.34,West,274,0.0,0.0,74,0.00,,---,0.00,VWS V14.01,2013-02-18 02:14:00,
2013-02-17 21:15:00,39.8,32.5,30.34,West,274,0.0,0.0,75,0.00,,---,0.00,VWS V14.01,2013-02-18 02:15:00,
2013-02-17 21:16:00,39.8,32.5,30.34,West,274,0.0,0.0,75,0.00,,---,0.00,VWS V14.01,2013-02-18 02:16:00,
2013-02-17 21:20:00,39.7,32.4,30.34,West,274,0.0,0.0,75,0.00,,---,0.00,VWS V14.01,2013-02-18 02:20:00,
2013-02-17 21:21:00,39.7,32.4,30.34,West,274,0.0,0.0,75,0.00,,---,0.00,VWS V14.01,2013-02-18 02:21:00,
2013-02-17 21:22:00,39.7,32.4,30.34,West,274,0.0,0.0,75,0.00,,---,0.00,VWS V14.01,2013-02-18 02:22:00,
2013-02-17 21:25:00,39.6,32.3,30.34,West,274,0.0,0.0,75,0.00,,---,0.00,VWS V14.01,2013-02-18 02:25:00,
2013-02-17 21:26:00,39.6,32.7,30.34,West,274,0.0,0.0,76,0.00,,---,0.00,VWS V14.01,2013-02-18 02:26:00,
2013-02-17 21:27:00,39.6,32.7,30.34,West,274,0.0,0.0,76,0.00,,---,0.00,VWS V14.01,2013-02-18 02:27:00,
2013-02-17 21:31:00,39.5,32.6,30.34,West,274,0.0,0.0,76,0.00,,---,0.00,VWS V14.01,2013-02-18 02:31:00,
2013-02-17 21:32:00,39.5,32.9,30.34,West,274,0.0,0.0,77,0.00,,---,0.00,VWS V14.01,2013-02-18 02:32:00,
2013-02-17 21:33:00,39.5,32.9,30.34,West,274,0.0,0.0,77,0.00,,---,0.00,VWS V14.01,2013-02-18 02:33:00,
2013-02-17 21:36:00,39.3,32.7,30.34,West,274,0.0,0.0,77,0.00,,---,0.00,VWS V14.01,2013-02-18 02:36:00,
2013-02-17 21:39:00,39.3,32.7,30.34,West,274,0.0,0.0,77,0.00,,---,0.00,VWS V14.01,2013-02-18 02:39:00,
2013-02-17 21:40:00,39.3,32.7,30.34,West,274,0.0,0.0,77,0.00,,---,0.00,VWS V14.01,2013-02-18 02:40:00,
2013-02-17 21:44:00,39.1,32.5,30.34,West,274,0.0,0.0,77,0.00,,---,0.00,VWS V14.01,2013-02-18 02:44:00,
2013-02-17 21:45:00,39.1,32.5,30.34,West,274,0.0,0.0,77,0.00,,---,0.00,VWS V14.01,2013-02-18 02:45:00,
2013-02-17 21:50:00,39.0,33.0,30.35,West,274,0.0,0.0,79,0.00,,---,0.00,VWS V14.01,2013-02-18 02:50:00,
2013-02-17 21:51:00,38.9,33.0,30.35,West,274,0.0,0.0,79,0.00,,---,0.00,VWS V14.01,2013-02-18 02:51:00,
2013-02-17 21:56:00,38.8,32.9,30.35,West,274,0.0,0.0,79,0.00,,---,0.00,VWS V14.01,2013-02-18 02:56:00,
2013-02-17 22:01:00,38.7,32.8,30.35,West,274,0.0,0.0,79,0.00,,---,0.00,VWS V14.01,2013-02-18 03:01:00,
2013-02-17 22:02:00,38.7,32.4,30.35,West,274,0.0,0.0,78,0.00,,---,0.00,VWS V14.01,2013-02-18 03:02:00,
2013-02-17 22:03:00,38.6,32.7,30.35,West,274,0.0,0.0,79,0.00,,---,0.00,VWS V14.01,2013-02-18 03:03:00,
2013-02-17 22:06:00,38.5,32.6,30.35,West,274,0.0,0.0,79,0.00,,---,0.00,VWS V14.01,2013-02-18 03:06:00,
2013-02-17 22:07:00,38.5,32.6,30.35,West,274,0.0,0.0,79,0.00,,---,0.00,VWS V14.01,2013-02-18 03:07:00,
2013-02-17 22:09:00,38.4,32.8,30.35,West,274,0.0,0.0,80,0.00,,---,0.00,VWS V14.01,2013-02-18 03:09:00,
2013-02-17 22:12:00,38.4,32.8,30.35,West,274,0.0,0.0,80,0.00,,---,0.00,VWS V14.01,2013-02-18 03:12:00,
2013-02-17 22:13:00,38.4,32.8,30.35,West,274,0.0,0.0,80,0.00,,---,0.00,VWS V14.01,2013-02-18 03:13:00,
2013-02-17 22:15:00,38.3,32.7,30.35,West,274,0.0,0.0,80,0.00,,---,0.00,VWS V14.01,2013-02-18 03:15:00,
2013-02-17 22:17:00,38.3,32.7,30.35,West,274,0.0,0.0,80,0.00,,---,0.00,VWS V14.01,2013-02-18 03:17:00,
2013-02-17 22:18:00,38.3,32.7,30.35,West,274,0.0,0.0,80,0.00,,---,0.00,VWS V14.01,2013-02-18 03:18:00,
2013-02-17 22:19:00,38.2,32.9,30.35,West,274,0.0,0.0,81,0.00,,---,0.00,VWS V14.01,2013-02-18 03:19:00,
2013-02-17 22:20:00,38.2,32.9,30.35,West,274,0.0,0.0,81,0.00,,---,0.00,VWS V14.01,2013-02-18 03:20:00,
2013-02-17 22:22:00,38.1,32.8,30.35,West,274,0.0,0.0,81,0.00,,---,0.00,VWS V14.01,2013-02-18 03:22:00,
2013-02-17 22:23:00,38.1,32.8,30.35,West,274,0.0,0.0,81,0.00,,---,0.00,VWS V14.01,2013-02-18 03:23:00,
2013-02-17 22:24:00,38.1,32.8,30.36,West,274,0.0,0.0,81,0.00,,---,0.00,VWS V14.01,2013-02-18 03:24:00,
2013-02-17 22:27:00,38.0,32.7,30.36,West,274,0.0,0.0,81,0.00,,---,0.00,VWS V14.01,2013-02-18 03:27:00,
2013-02-17 22:28:00,37.9,32.6,30.36,West,274,0.0,0.0,81,0.00,,---,0.00,VWS V14.01,2013-02-18 03:28:00,
2013-02-17 22:29:00,37.9,32.6,30.36,West,274,0.0,0.0,81,0.00,,---,0.00,VWS V14.01,2013-02-18 03:29:00,
2013-02-17 22:32:00,37.8,32.5,30.36,West,274,0.0,0.0,81,0.00,,---,0.00,VWS V14.01,2013-02-18 03:32:00,
2013-02-17 22:33:00,37.8,32.5,30.36,West,274,0.0,0.0,81,0.00,,---,0.00,VWS V14.01,2013-02-18 03:33:00,
2013-02-17 22:34:00,37.8,32.5,30.36,West,274,0.0,0.0,81,0.00,,---,0.00,VWS V14.01,2013-02-18 03:34:00,
2013-02-17 22:39:00,37.6,32.3,30.36,West,274,0.0,0.0,81,0.00,,---,0.00,VWS V14.01,2013-02-18 03:39:00,
2013-02-17 22:40:00,37.6,32.3,30.36,West,274,0.0,0.0,81,0.00,,---,0.00,VWS V14.01,2013-02-18 03:40:00,
2013-02-17 22:41:00,37.5,32.2,30.36,West,274,0.0,0.0,81,0.00,,---,0.00,VWS V14.01,2013-02-18 03:41:00,
2013-02-17 22:44:00,37.5,32.2,30.36,West,274,0.0,0.0,81,0.00,,---,0.00,VWS V14.01,2013-02-18 03:44:00,
2013-02-17 22:45:00,37.5,32.2,30.36,West,274,0.0,0.0,81,0.00,,---,0.00,VWS V14.01,2013-02-18 03:45:00,
2013-02-17 22:47:00,37.4,32.1,30.36,West,274,0.0,0.0,81,0.00,,---,0.00,VWS V14.01,2013-02-18 03:47:00,
2013-02-17 22:49:00,37.3,32.3,30.36,West,274,0.0,0.0,82,0.00,,---,0.00,VWS V14.01,2013-02-18 03:49:00,
2013-02-17 22:50:00,37.3,32.3,30.36,West,274,0.0,0.0,82,0.00,,---,0.00,VWS V14.01,2013-02-18 03:50:00,
2013-02-17 22:52:00,37.3,32.3,30.36,West,274,0.0,0.0,82,0.00,,---,0.00,VWS V14.01,2013-02-18 03:52:00,
2013-02-17 22:53:00,37.3,32.3,30.36,West,274,0.0,0.0,82,0.00,,---,0.00,VWS V14.01,2013-02-18 03:53:00,
2013-02-17 22:55:00,37.2,32.2,30.36,West,274,0.0,0.0,82,0.00,,---,0.00,VWS V14.01,2013-02-18 03:55:00,
2013-02-17 22:56:00,37.2,32.2,30.36,West,274,0.0,0.0,82,0.00,,---,0.00,VWS V14.01,2013-02-18 03:56:00,
2013-02-17 22:57:00,37.2,32.5,30.36,West,274,0.0,0.0,83,0.00,,---,0.00,VWS V14.01,2013-02-18 03:57:00,
2013-02-17 22:59:00,37.1,32.1,30.36,West,274,0.0,0.0,82,0.00,,---,0.00,VWS V14.01,2013-02-18 03:59:00,
2013-02-17 23:01:00,37.1,32.1,30.36,West,274,0.0,0.0,82,0.00,,---,0.00,VWS V14.01,2013-02-18 04:01:00,
2013-02-17 23:02:00,37.1,32.1,30.36,West,274,0.0,0.0,82,0.00,,---,0.00,VWS V14.01,2013-02-18 04:02:00,
2013-02-17 23:04:00,37.0,32.0,30.36,West,274,0.0,0.0,82,0.00,,---,0.00,VWS V14.01,2013-02-18 04:04:00,
2013-02-17 23:05:00,37.0,32.3,30.36,West,274,0.0,0.0,83,0.00,,---,0.00,VWS V14.01,2013-02-18 04:05:00,
2013-02-17 23:07:00,37.0,32.3,30.36,West,274,0.0,0.0,83,0.00,,---,0.00,VWS V14.01,2013-02-18 04:07:00,
2013-02-17 23:08:00,37.0,32.3,30.36,West,274,0.0,0.0,83,0.00,,---,0.00,VWS V14.01,2013-02-18 04:08:00,
2013-02-17 23:10:00,36.9,32.2,30.36,West,274,0.0,0.0,83,0.00,,---,0.00,VWS V14.01,2013-02-18 04:10:00,
2013-02-17 23:13:00,36.9,32.2,30.36,West,274,0.0,0.0,83,0.00,,---,0.00,VWS V14.01,2013-02-18 04:13:00,
2013-02-17 23:15:00,36.8,32.4,30.36,West,274,0.0,0.0,84,0.00,,---,0.00,VWS V14.01,2013-02-18 04:15:00,
2013-02-17 23:17:00,36.8,32.1,30.36,West,274,0.0,0.0,83,0.00,,---,0.00,VWS V14.01,2013-02-18 04:17:00,
2013-02-17 23:18:00,36.7,32.0,30.36,West,274,0.0,0.0,83,0.00,,---,0.00,VWS V14.01,2013-02-18 04:18:00,
2013-02-17 23:19:00,36.7,32.0,30.36,West,274,0.0,0.0,83,0.00,,---,0.00,VWS V14.01,2013-02-18 04:19:00,
2013-02-17 23:21:00,36.6,31.9,30.36,West,274,0.0,0.0,83,0.00,,---,0.00,VWS V14.01,2013-02-18 04:21:00,
2013-02-17 23:24:00,36.5,31.8,30.36,West,274,0.0,0.0,83,0.00,,---,0.00,VWS V14.01,2013-02-18 04:24:00,
2013-02-17 23:25:00,36.5,31.8,30.36,West,274,0.0,0.0,83,0.00,,---,0.00,VWS V14.01,2013-02-18 04:25:00,
2013-02-17 23:26:00,36.4,31.7,30.36,West,274,0.0,0.0,83,0.00,,---,0.00,VWS V14.01,2013-02-18 04:26:00,
2013-02-17 23:29:00,36.3,31.9,30.36,West,274,0.0,0.0,84,0.00,,---,0.00,VWS V14.01,2013-02-18 04:29:00,
2013-02-17 23:31:00,36.2,31.8,30.36,West,274,0.0,0.0,84,0.00,,---,0.00,VWS V14.01,2013-02-18 04:31:00,
2013-02-17 23:32:00,36.2,32.1,30.36,West,274,0.0,0.0,85,0.00,,---,0.00,VWS V14.01,2013-02-18 04:32:00,
2013-02-17 23:36:00,36.1,31.7,30.36,West,274,0.0,0.0,84,0.00,,---,0.00,VWS V14.01,2013-02-18 04:36:00,
2013-02-17 23:37:00,36.1,31.7,30.36,West,274,0.0,0.0,84,0.00,,---,0.00,VWS V14.01,2013-02-18 04:37:00,
2013-02-17 23:38:00,36.0,31.6,30.36,West,274,0.0,0.0,84,0.00,,---,0.00,VWS V14.01,2013-02-18 04:38:00,
2013-02-17 23:41:00,35.9,31.8,30.36,West,274,0.0,0.0,85,0.00,,---,0.00,VWS V14.01,2013-02-18 04:41:00,
2013-02-17 23:42:00,35.9,31.8,30.36,West,274,0.0,0.0,85,0.00,,---,0.00,VWS V14.01,2013-02-18 04:42:00,
2013-02-17 23:43:00,35.9,31.8,30.36,West,274,0.0,0.0,85,0.00,,---,0.00,VWS V14.01,2013-02-18 04:43:00,
2013-02-17 23:44:00,35.8,31.7,30.36,West,274,0.0,0.0,85,0.00,,---,0.00,VWS V14.01,2013-02-18 04:44:00,
2013-02-17 23:47:00,35.8,31.7,30.36,West,274,0.0,0.0,85,0.00,,---,0.00,VWS V14.01,2013-02-18 04:47:00,
2013-02-17 23:48:00,35.8,31.7,30.36,West,274,0.0,0.0,85,0.00,,---,0.00,VWS V14.01,2013-02-18 04:48:00,
2013-02-17 23:49:00,35.8,31.7,30.36,West,274,0.0,0.0,85,0.00,,---,0.00,VWS V14.01,2013-02-18 04:49:00,
2013-02-17 23:53:00,35.7,31.6,30.36,West,274,0.0,0.0,85,0.00,,---,0.00,VWS V14.01,2013-02-18 04:53:00,
2013-02-17 23:55:00,35.7,31.6,30.36,West,274,0.0,0.0,85,0.00,,---,0.00,VWS V14.01,2013-02-18 04:55:00,
2013-02-17 23:58:00,35.6,31.5,30.36,West,274,0.0,0.0,85,0.00,,---,0.00,VWS V14.01,2013-02-18 04:58:00,